Wetterdaten: aktuell Donnerstag, 05.12.2019 20:28
Datum Zeit Temp. I. Temp. 2m Temp. 5cm Feuchte I. Feuchte 2m Luftdruck Regen Wind Richtung Richtung Taupunkt Windchill Windben
05.12.2019 20:28 19,2 C -1,9 C 1,4 C 53 % 89 % 1020,6 hPa 0,0 l/m 1,2 km/h (1 Bft) SO 135 -3,5 C -1,9 C 0,0 km/h (0 Bft)
05.12.2019 20:26 19,1 C -1,9 C 1,4 C 53 % 89 % 1020,6 hPa 0,0 l/m 1,4 km/h (1 Bft) SO 135 -3,5 C -1,9 C 0,0 km/h (0 Bft)
05.12.2019 20:24 19,1 C -1,9 C 1,5 C 53 % 89 % 1020,6 hPa 0,0 l/m 1,7 km/h (1 Bft) S 180 -3,5 C -1,9 C 3,4 km/h (1 Bft)
05.12.2019 20:22 19,1 C -1,9 C 1,5 C 53 % 89 % 1020,6 hPa 0,0 l/m 1,4 km/h (1 Bft) S-SO 157 -3,5 C -1,9 C 5,6 km/h (1 Bft)
05.12.2019 20:20 19,1 C -1,9 C 1,5 C 53 % 89 % 1020,2 hPa 0,0 l/m 1,0 km/h (0 Bft) S-SO 157 -3,5 C -1,9 C 5,6 km/h (1 Bft)
05.12.2019 20:18 19,1 C -1,9 C 1,4 C 53 % 89 % 1020,2 hPa 0,0 l/m 0,5 km/h (0 Bft) N-NO 22 -3,5 C -1,9 C 5,1 km/h (1 Bft)
05.12.2019 20:16 19,1 C -1,9 C 1,4 C 53 % 89 % 1020,2 hPa 0,0 l/m 0,2 km/h (0 Bft) S-SO 157 -3,5 C -1,9 C 5,1 km/h (1 Bft)
05.12.2019 20:14 19,0 C -1,9 C 1,4 C 53 % 89 % 1020,2 hPa 0,0 l/m 0,2 km/h (0 Bft) SO 135 -3,5 C -1,9 C 2,4 km/h (1 Bft)
05.12.2019 20:12 19,0 C -1,9 C 1,4 C 53 % 89 % 1020,2 hPa 0,0 l/m 0,2 km/h (0 Bft) S-SO 157 -3,5 C -1,9 C 0,0 km/h (0 Bft)
05.12.2019 20:10 19,0 C -2,0 C 1,4 C 53 % 89 % 1020,2 hPa 0,0 l/m 0,7 km/h (0 Bft) SW 225 -3,6 C -2,0 C 0,0 km/h (0 Bft)
05.12.2019 20:08 18,9 C -2,0 C 1,4 C 53 % 89 % 1020,2 hPa 0,0 l/m 1,2 km/h (1 Bft) SO 135 -3,6 C -2,0 C 0,0 km/h (0 Bft)
05.12.2019 20:06 18,8 C -2,0 C 1,4 C 53 % 89 % 1020,2 hPa 0,0 l/m 1,9 km/h (1 Bft) SO 135 -3,6 C -2,0 C 0,0 km/h (0 Bft)
05.12.2019 20:04 18,8 C -2,0 C 1,4 C 54 % 89 % 1020,2 hPa 0,0 l/m 2,4 km/h (1 Bft) O 90 -3,6 C -2,0 C 3,4 km/h (1 Bft)
05.12.2019 20:02 18,8 C -2,0 C 1,5 C 54 % 89 % 1020,2 hPa 0,0 l/m 2,4 km/h (1 Bft) S-SO 157 -3,6 C -2,0 C 3,4 km/h (1 Bft)
05.12.2019 20:00 18,7 C -2,0 C 1,5 C 54 % 89 % 1019,6 hPa 0,0 l/m 2,2 km/h (1 Bft) S-SO 157 -3,6 C -2,0 C 3,1 km/h (1 Bft)
05.12.2019 19:58 18,6 C -2,0 C 1,5 C 54 % 89 % 1019,6 hPa 0,0 l/m 2,4 km/h (1 Bft) S 180 -3,6 C -2,0 C 3,1 km/h (1 Bft)
05.12.2019 19:56 18,6 C -2,0 C 1,5 C 54 % 89 % 1019,6 hPa 0,0 l/m 2,4 km/h (1 Bft) S-SO 157 -3,6 C -2,0 C 3,4 km/h (1 Bft)
05.12.2019 19:54 18,5 C -2,0 C 1,4 C 54 % 89 % 1019,6 hPa 0,0 l/m 2,2 km/h (1 Bft) SO 135 -3,6 C -2,0 C 3,4 km/h (1 Bft)
05.12.2019 19:52 18,4 C -2,0 C 1,4 C 54 % 89 % 1019,6 hPa 0,0 l/m 2,2 km/h (1 Bft) SO 135 -3,6 C -2,0 C 2,9 km/h (1 Bft)
05.12.2019 19:50 18,4 C -2,0 C 1,5 C 54 % 89 % 1019,6 hPa 0,0 l/m 2,4 km/h (1 Bft) S-SO 157 -3,6 C -2,0 C 6,5 km/h (2 Bft)
05.12.2019 19:48 18,3 C -1,9 C 1,5 C 54 % 89 % 1019,6 hPa 0,0 l/m 2,4 km/h (1 Bft) S-SO 157 -3,5 C -1,9 C 6,5 km/h (2 Bft)
05.12.2019 19:46 18,2 C -1,9 C 1,5 C 54 % 89 % 1019,6 hPa 0,0 l/m 1,7 km/h (1 Bft) S-SO 157 -3,5 C -1,9 C 6,3 km/h (2 Bft)
05.12.2019 19:44 18,1 C -1,9 C 1,5 C 54 % 89 % 1019,6 hPa 0,0 l/m 1,4 km/h (1 Bft) SO 135 -3,5 C -1,9 C 6,3 km/h (2 Bft)
05.12.2019 19:42 18,1 C -1,9 C 1,5 C 54 % 89 % 1019,6 hPa 0,0 l/m 1,0 km/h (0 Bft) SO 135 -3,5 C -1,9 C 3,9 km/h (1 Bft)
05.12.2019 19:40 18,0 C -1,9 C 1,5 C 54 % 89 % 1019,1 hPa 0,0 l/m 0,5 km/h (0 Bft) S-SO 157 -3,5 C -1,9 C 4,6 km/h (1 Bft)
05.12.2019 19:38 17,9 C -2,0 C 1,5 C 55 % 89 % 1019,1 hPa 0,0 l/m 0,7 km/h (0 Bft) SO 135 -3,6 C -2,0 C 4,6 km/h (1 Bft)
05.12.2019 19:36 17,8 C -2,0 C 1,4 C 55 % 89 % 1019,1 hPa 0,0 l/m 1,2 km/h (1 Bft) S-SO 157 -3,6 C -2,0 C 0,0 km/h (0 Bft)
05.12.2019 19:34 17,7 C -2,1 C 1,4 C 55 % 89 % 1019,1 hPa 0,0 l/m 1,4 km/h (1 Bft) S 180 -3,7 C -2,1 C 0,0 km/h (0 Bft)
05.12.2019 19:32 17,6 C -2,1 C 1,4 C 55 % 89 % 1019,1 hPa 0,0 l/m 1,4 km/h (1 Bft) O-NO 67 -3,7 C -2,1 C 0,0 km/h (0 Bft)
05.12.2019 19:30 17,6 C -2,1 C 1,4 C 55 % 89 % 1019,1 hPa 0,0 l/m 1,7 km/h (1 Bft) W-SW 247 -3,7 C -2,1 C 6,5 km/h (2 Bft)
05.12.2019 19:28 17,5 C -2,1 C 1,4 C 55 % 89 % 1019,1 hPa 0,0 l/m 1,7 km/h (1 Bft) SO 135 -3,7 C -2,1 C 6,5 km/h (2 Bft)
05.12.2019 19:26 17,4 C -2,1 C 1,3 C 55 % 89 % 1019,1 hPa 0,0 l/m 0,7 km/h (0 Bft) S 180 -3,7 C -2,1 C 5,8 km/h (2 Bft)
05.12.2019 19:24 17,2 C -2,1 C 1,5 C 55 % 89 % 1019,1 hPa 0,0 l/m 0,5 km/h (0 Bft) SO 135 -3,7 C -2,1 C 0,0 km/h (0 Bft)
05.12.2019 19:22 17,2 C -2,1 C 1,4 C 55 % 89 % 1019,1 hPa 0,0 l/m 0,7 km/h (0 Bft) NO 45 -3,7 C -2,1 C 2,9 km/h (1 Bft)
05.12.2019 19:20 17,1 C -2,1 C 1,4 C 55 % 89 % 1018,7 hPa 0,0 l/m 1,0 km/h (0 Bft) S-SO 157 -3,7 C -2,1 C 2,9 km/h (1 Bft)
05.12.2019 19:18 17,0 C -2,1 C 1,4 C 55 % 89 % 1018,7 hPa 0,0 l/m 1,2 km/h (1 Bft) S-SO 157 -3,7 C -2,1 C 0,0 km/h (0 Bft)
05.12.2019 19:16 17,0 C -2,1 C 1,3 C 55 % 89 % 1018,7 hPa 0,0 l/m 1,9 km/h (1 Bft) S 180 -3,7 C -2,1 C 3,4 km/h (1 Bft)
05.12.2019 19:14 17,0 C -2,1 C 1,4 C 55 % 89 % 1018,7 hPa 0,0 l/m 2,4 km/h (1 Bft) S-SO 157 -3,7 C -2,1 C 3,4 km/h (1 Bft)
05.12.2019 19:12 17,0 C -2,1 C 1,4 C 55 % 89 % 1018,7 hPa 0,0 l/m 3,1 km/h (1 Bft) S-SO 157 -3,7 C -2,1 C 3,1 km/h (1 Bft)
05.12.2019 19:10 16,9 C -2,1 C 1,4 C 55 % 89 % 1018,7 hPa 0,0 l/m 4,3 km/h (1 Bft) SO 135 -3,7 C -2,1 C 4,1 km/h (1 Bft)
05.12.2019 19:08 16,8 C -2,1 C 1,4 C 55 % 89 % 1018,7 hPa 0,0 l/m 4,8 km/h (1 Bft) S 180 -3,7 C -2,1 C 5,1 km/h (1 Bft)
05.12.2019 19:06 16,8 C -2,1 C 1,4 C 55 % 89 % 1018,7 hPa 0,0 l/m 4,8 km/h (1 Bft) S 180 -3,7 C -2,1 C 5,1 km/h (1 Bft)
05.12.2019 19:04 16,8 C -2,1 C 1,4 C 55 % 89 % 1018,7 hPa 0,0 l/m 5,1 km/h (1 Bft) S-SO 157 -3,7 C -2,1 C 9,7 km/h (2 Bft)
05.12.2019 19:02 16,7 C -1,9 C 1,4 C 55 % 89 % 1018,7 hPa 0,0 l/m 5,1 km/h (1 Bft) SO 135 -3,5 C -1,9 C 9,7 km/h (2 Bft)
05.12.2019 19:00 16,7 C -1,9 C 1,4 C 55 % 89 % 1018,2 hPa 0,0 l/m 4,3 km/h (1 Bft) S 180 -3,5 C -1,9 C 9,9 km/h (2 Bft)
05.12.2019 18:58 16,6 C -2,0 C 1,5 C 55 % 89 % 1018,2 hPa 0,0 l/m 4,1 km/h (1 Bft) S-SO 157 -3,6 C -2,0 C 9,9 km/h (2 Bft)
05.12.2019 18:56 16,6 C -2,0 C 1,5 C 55 % 89 % 1018,2 hPa 0,0 l/m 3,9 km/h (1 Bft) S-SO 157 -3,6 C -2,0 C 7,2 km/h (2 Bft)
05.12.2019 18:54 16,5 C -2,0 C 1,4 C 55 % 89 % 1018,2 hPa 0,0 l/m 4,1 km/h (1 Bft) SO 135 -3,6 C -2,0 C 7,2 km/h (2 Bft)
05.12.2019 18:52 16,5 C -2,0 C 1,5 C 54 % 89 % 1018,2 hPa 0,0 l/m 3,6 km/h (1 Bft) S-SO 157 -3,6 C -2,0 C 3,4 km/h (1 Bft)
05.12.2019 18:50 16,4 C -2,0 C 1,5 C 55 % 89 % 1018,2 hPa 0,0 l/m 3,1 km/h (1 Bft) S-SO 157 -3,6 C -2,0 C 5,6 km/h (1 Bft)
05.12.2019 18:48 16,4 C -1,9 C 1,5 C 55 % 89 % 1018,2 hPa 0,0 l/m 2,9 km/h (1 Bft) S-SO 157 -3,5 C -1,9 C 6,5 km/h (2 Bft)
05.12.2019 18:46 16,2 C -1,9 C 1,5 C 55 % 89 % 1018,2 hPa 0,0 l/m 2,2 km/h (1 Bft) S 180 -3,5 C -1,9 C 6,5 km/h (2 Bft)
05.12.2019 18:44 16,3 C -1,7 C 1,5 C 55 % 89 % 1018,2 hPa 0,0 l/m 1,2 km/h (1 Bft) SO 135 -3,3 C -1,7 C 6,0 km/h (2 Bft)
05.12.2019 18:42 16,2 C -1,9 C 1,5 C 55 % 89 % 1018,2 hPa 0,0 l/m 1,0 km/h (0 Bft) SO 135 -3,5 C -1,9 C 4,3 km/h (1 Bft)
05.12.2019 18:40 16,2 C -1,9 C 1,5 C 55 % 89 % 1017,9 hPa 0,0 l/m 1,0 km/h (0 Bft) SO 135 -3,5 C -1,9 C 4,3 km/h (1 Bft)
05.12.2019 18:38 16,1 C -1,9 C 1,5 C 55 % 89 % 1017,9 hPa 0,0 l/m 0,5 km/h (0 Bft) S-SO 157 -3,5 C -1,9 C 0,0 km/h (0 Bft)
05.12.2019 18:36 15,9 C -1,9 C 1,5 C 54 % 89 % 1017,9 hPa 0,0 l/m 1,0 km/h (0 Bft) SW 225 -3,5 C -1,9 C 0,0 km/h (0 Bft)
05.12.2019 18:34 16,0 C -1,9 C 1,4 C 54 % 89 % 1017,9 hPa 0,0 l/m 1,4 km/h (1 Bft) SO 135 -3,5 C -1,9 C 0,0 km/h (0 Bft)
05.12.2019 18:32 16,0 C -1,7 C 1,4 C 54 % 89 % 1017,9 hPa 0,0 l/m 1,7 km/h (1 Bft) SO 135 -3,3 C -1,7 C 2,7 km/h (1 Bft)
05.12.2019 18:30 15,9 C -1,7 C 1,6 C 54 % 89 % 1017,9 hPa 0,0 l/m 1,7 km/h (1 Bft) O-NO 67 -3,3 C -1,7 C 2,7 km/h (1 Bft)
05.12.2019 18:28 15,8 C -1,7 C 1,6 C 54 % 89 % 1017,9 hPa 0,0 l/m 1,7 km/h (1 Bft) SO 135 -3,3 C -1,7 C 4,3 km/h (1 Bft)
05.12.2019 18:26 15,8 C -1,7 C 1,5 C 53 % 89 % 1017,9 hPa 0,0 l/m 1,4 km/h (1 Bft) SO 135 -3,3 C -1,7 C 4,3 km/h (1 Bft)
05.12.2019 18:24 15,6 C -1,7 C 1,5 C 53 % 89 % 1017,9 hPa 0,0 l/m 1,0 km/h (0 Bft) S-SO 157 -3,3 C -1,7 C 3,1 km/h (1 Bft)
05.12.2019 18:22 15,6 C -1,7 C 1,5 C 53 % 89 % 1017,9 hPa 0,0 l/m 1,2 km/h (1 Bft) SO 135 -3,3 C -1,7 C 2,7 km/h (1 Bft)
05.12.2019 18:20 15,7 C -1,7 C 1,5 C 53 % 89 % 1017,5 hPa 0,0 l/m 1,2 km/h (1 Bft) NO 45 -3,3 C -1,7 C 0,0 km/h (0 Bft)
05.12.2019 18:18 15,6 C -1,7 C 1,5 C 53 % 88 % 1017,5 hPa 0,0 l/m 1,0 km/h (0 Bft) O-SO 112 -3,4 C -1,7 C 0,0 km/h (0 Bft)
05.12.2019 18:16 15,7 C -1,9 C 1,5 C 53 % 88 % 1017,5 hPa 0,0 l/m 1,0 km/h (0 Bft) S-SO 157 -3,6 C -1,9 C 0,0 km/h (0 Bft)
05.12.2019 18:14 15,6 C -1,9 C 1,4 C 53 % 88 % 1017,5 hPa 0,0 l/m 1,0 km/h (0 Bft) W-SW 247 -3,6 C -1,9 C 4,8 km/h (1 Bft)
05.12.2019 18:12 15,6 C -1,9 C 1,4 C 54 % 88 % 1017,5 hPa 0,0 l/m 0,7 km/h (0 Bft) S-SO 157 -3,6 C -1,9 C 4,8 km/h (1 Bft)
05.12.2019 18:10 15,6 C -1,9 C 1,4 C 54 % 88 % 1017,5 hPa 0,0 l/m 0,5 km/h (0 Bft) N-NO 22 -3,6 C -1,9 C 0,0 km/h (0 Bft)
05.12.2019 18:08 15,5 C -1,9 C 1,5 C 54 % 88 % 1017,5 hPa 0,0 l/m 0,7 km/h (0 Bft) NW 315 -3,6 C -1,9 C 0,0 km/h (0 Bft)
05.12.2019 18:06 15,4 C -1,7 C 1,5 C 54 % 88 % 1017,5 hPa 0,0 l/m 1,4 km/h (1 Bft) S 180 -3,4 C -1,7 C 3,9 km/h (1 Bft)
05.12.2019 18:04 15,2 C -1,7 C 1,5 C 54 % 88 % 1017,5 hPa 0,0 l/m 1,9 km/h (1 Bft) W-NW 292 -3,4 C -1,7 C 3,9 km/h (1 Bft)
05.12.2019 18:02 15,2 C -1,7 C 1,5 C 54 % 88 % 1017,5 hPa 0,0 l/m 2,4 km/h (1 Bft) S-SO 157 -3,4 C -1,7 C 5,8 km/h (2 Bft)
05.12.2019 18:00 15,2 C -1,7 C 1,5 C 54 % 88 % 1017,2 hPa 0,0 l/m 3,4 km/h (1 Bft) S-SO 157 -3,4 C -1,7 C 5,8 km/h (2 Bft)
05.12.2019 17:58 15,1 C -1,7 C 1,5 C 54 % 88 % 1017,2 hPa 0,0 l/m 3,1 km/h (1 Bft) SO 135 -3,4 C -1,7 C 4,3 km/h (1 Bft)
05.12.2019 17:56 14,9 C -1,7 C 1,5 C 54 % 88 % 1017,2 hPa 0,0 l/m 2,9 km/h (1 Bft) S-SO 157 -3,4 C -1,7 C 4,3 km/h (1 Bft)
05.12.2019 17:54 15,0 C -1,7 C 1,5 C 53 % 88 % 1017,2 hPa 0,0 l/m 2,2 km/h (1 Bft) S-SO 157 -3,4 C -1,7 C 3,9 km/h (1 Bft)
05.12.2019 17:52 14,8 C -1,7 C 1,5 C 53 % 88 % 1017,2 hPa 0,0 l/m 1,7 km/h (1 Bft) SO 135 -3,4 C -1,7 C 5,1 km/h (1 Bft)
05.12.2019 17:50 14,8 C -1,7 C 1,4 C 53 % 88 % 1017,2 hPa 0,0 l/m 0,7 km/h (0 Bft) S-SO 157 -3,4 C -1,7 C 5,1 km/h (1 Bft)
05.12.2019 17:48 14,7 C -1,9 C 1,4 C 53 % 88 % 1017,2 hPa 0,0 l/m 0,5 km/h (0 Bft) S 180 -3,6 C -1,9 C 2,9 km/h (1 Bft)
05.12.2019 17:46 14,6 C -1,9 C 1,3 C 52 % 88 % 1017,2 hPa 0,0 l/m 0,7 km/h (0 Bft) S-SO 157 -3,6 C -1,9 C 0,0 km/h (0 Bft)
05.12.2019 17:44 14,4 C -1,9 C 1,3 C 52 % 88 % 1017,2 hPa 0,0 l/m 1,7 km/h (1 Bft) S-SO 157 -3,6 C -1,9 C 0,0 km/h (0 Bft)
05.12.2019 17:42 14,5 C -1,9 C 1,1 C 52 % 88 % 1017,2 hPa 0,0 l/m 1,9 km/h (1 Bft) SO 135 -3,6 C -1,9 C 0,0 km/h (0 Bft)
05.12.2019 17:40 14,3 C -1,9 C 1,1 C 52 % 88 % 1016,8 hPa 0,0 l/m 2,4 km/h (1 Bft) S 180 -3,6 C -1,9 C 3,9 km/h (1 Bft)
05.12.2019 17:38 14,4 C -1,9 C 0,9 C 52 % 88 % 1016,8 hPa 0,0 l/m 3,1 km/h (1 Bft) N-NO 22 -3,6 C -1,9 C 3,9 km/h (1 Bft)
05.12.2019 17:36 14,2 C -1,9 C 1,3 C 52 % 88 % 1016,8 hPa 0,0 l/m 2,7 km/h (1 Bft) O-NO 67 -3,6 C -1,9 C 3,6 km/h (1 Bft)
05.12.2019 17:34 14,3 C -1,9 C 1,4 C 52 % 88 % 1016,8 hPa 0,0 l/m 2,2 km/h (1 Bft) S-SO 157 -3,6 C -1,9 C 3,6 km/h (1 Bft)
05.12.2019 17:32 14,3 C -1,9 C 1,3 C 52 % 88 % 1016,8 hPa 0,0 l/m 1,9 km/h (1 Bft) S-SO 157 -3,6 C -1,9 C 3,9 km/h (1 Bft)
05.12.2019 17:30 14,2 C -1,9 C 1,1 C 52 % 88 % 1016,8 hPa 0,0 l/m 2,4 km/h (1 Bft) SO 135 -3,6 C -1,9 C 5,6 km/h (1 Bft)
05.12.2019 17:28 14,2 C -1,9 C 1,4 C 52 % 88 % 1016,8 hPa 0,0 l/m 1,7 km/h (1 Bft) O-SO 112 -3,6 C -1,9 C 5,6 km/h (1 Bft)
05.12.2019 17:26 14,2 C -1,9 C 1,5 C 52 % 88 % 1016,8 hPa 0,0 l/m 1,4 km/h (1 Bft) S-SO 157 -3,6 C -1,9 C 0,0 km/h (0 Bft)
05.12.2019 17:24 14,2 C -1,9 C 1,5 C 53 % 88 % 1016,8 hPa 0,0 l/m 1,9 km/h (1 Bft) S 180 -3,6 C -1,9 C 2,9 km/h (1 Bft)
05.12.2019 17:22 14,1 C -1,9 C 1,5 C 53 % 88 % 1016,8 hPa 0,0 l/m 2,7 km/h (1 Bft) S 180 -3,6 C -1,9 C 4,1 km/h (1 Bft)
05.12.2019 17:20 13,9 C -1,9 C 1,5 C 53 % 88 % 1016,6 hPa 0,0 l/m 2,4 km/h (1 Bft) S-SO 157 -3,6 C -1,9 C 4,1 km/h (1 Bft)
05.12.2019 17:18 13,9 C -1,9 C 1,5 C 53 % 88 % 1016,6 hPa 0,0 l/m 1,9 km/h (1 Bft) S 180 -3,6 C -1,9 C 4,1 km/h (1 Bft)
05.12.2019 17:16 14,0 C -1,9 C 1,5 C 53 % 88 % 1016,6 hPa 0,0 l/m 1,9 km/h (1 Bft) S-SO 157 -3,6 C -1,9 C 5,1 km/h (1 Bft)
05.12.2019 17:14 14,0 C -1,7 C 1,4 C 53 % 88 % 1016,6 hPa 0,0 l/m 1,4 km/h (1 Bft) S-SO 157 -3,4 C -1,7 C 5,1 km/h (1 Bft)
05.12.2019 17:12 13,9 C -1,9 C 1,3 C 53 % 88 % 1016,6 hPa 0,0 l/m 1,0 km/h (0 Bft) S 180 -3,6 C -1,9 C 5,1 km/h (1 Bft)
05.12.2019 17:10 13,8 C -1,9 C 1,3 C 53 % 88 % 1016,6 hPa 0,0 l/m 0,7 km/h (0 Bft) S 180 -3,6 C -1,9 C 0,0 km/h (0 Bft)
05.12.2019 17:08 13,8 C -1,9 C 1,2 C 53 % 88 % 1016,6 hPa 0,0 l/m 1,7 km/h (1 Bft) N-NW 337 -3,6 C -1,9 C 0,0 km/h (0 Bft)
05.12.2019 17:06 13,8 C -1,9 C 0,9 C 53 % 88 % 1016,6 hPa 0,0 l/m 1,9 km/h (1 Bft) S 180 -3,6 C -1,9 C 0,0 km/h (0 Bft)
05.12.2019 17:04 13,6 C -1,9 C 0,9 C 53 % 88 % 1016,6 hPa 0,0 l/m 1,9 km/h (1 Bft) N-NO 22 -3,6 C -1,9 C 3,9 km/h (1 Bft)
05.12.2019 17:02 13,6 C -1,7 C 1,6 C 53 % 88 % 1016,6 hPa 0,0 l/m 1,9 km/h (1 Bft) S-SW 202 -3,4 C -1,7 C 6,0 km/h (2 Bft)
05.12.2019 17:00 13,6 C -1,7 C 1,6 C 53 % 88 % 1016,5 hPa 0,0 l/m 1,9 km/h (1 Bft) O-NO 67 -3,4 C -1,7 C 6,0 km/h (2 Bft)
05.12.2019 16:58 13,6 C -1,7 C 1,6 C 53 % 88 % 1016,5 hPa 0,0 l/m 1,0 km/h (0 Bft) O-SO 112 -3,4 C -1,7 C 4,8 km/h (1 Bft)
05.12.2019 16:56 13,6 C -1,7 C 1,6 C 53 % 88 % 1016,5 hPa 0,0 l/m 0,7 km/h (0 Bft) O-NO 67 -3,4 C -1,7 C 3,9 km/h (1 Bft)
05.12.2019 16:54 13,6 C -1,7 C 1,5 C 53 % 88 % 1016,5 hPa 0,0 l/m 0,5 km/h (0 Bft) S-SO 157 -3,4 C -1,7 C 0,0 km/h (0 Bft)
05.12.2019 16:52 13,4 C -1,7 C 1,5 C 52 % 88 % 1016,5 hPa 0,0 l/m 0,5 km/h (0 Bft) NO 45 -3,4 C -1,7 C 3,9 km/h (1 Bft)
05.12.2019 16:50 13,5 C -1,7 C 1,5 C 52 % 88 % 1016,5 hPa 0,0 l/m 0,5 km/h (0 Bft) SO 135 -3,4 C -1,7 C 3,9 km/h (1 Bft)
05.12.2019 16:48 13,5 C -1,7 C 1,5 C 52 % 88 % 1016,5 hPa 0,0 l/m 0,5 km/h (0 Bft) S 180 -3,4 C -1,7 C 0,0 km/h (0 Bft)
05.12.2019 16:46 13,3 C -1,7 C 1,6 C 52 % 88 % 1016,5 hPa 0,0 l/m 0,5 km/h (0 Bft) W-SW 247 -3,4 C -1,7 C 0,0 km/h (0 Bft)
05.12.2019 16:44 13,3 C -1,7 C 1,6 C 52 % 88 % 1016,5 hPa 0,0 l/m 0,7 km/h (0 Bft) O-NO 67 -3,4 C -1,7 C 0,0 km/h (0 Bft)
05.12.2019 16:42 13,3 C -1,7 C 1,6 C 52 % 88 % 1016,5 hPa 0,0 l/m 1,4 km/h (1 Bft) S 180 -3,4 C -1,7 C 0,0 km/h (0 Bft)
05.12.2019 16:40 13,3 C -1,7 C 1,6 C 52 % 88 % 1016,4 hPa 0,0 l/m 1,7 km/h (1 Bft) NW 315 -3,4 C -1,7 C 0,0 km/h (0 Bft)
05.12.2019 16:38 13,3 C -1,7 C 1,5 C 52 % 88 % 1016,4 hPa 0,0 l/m 2,2 km/h (1 Bft) SO 135 -3,4 C -1,7 C 0,0 km/h (0 Bft)
05.12.2019 16:36 13,5 C -1,7 C 1,4 C 52 % 88 % 1016,4 hPa 0,0 l/m 2,9 km/h (1 Bft) SO 135 -3,4 C -1,7 C 4,1 km/h (1 Bft)
05.12.2019 16:34 13,5 C -1,9 C 1,3 C 52 % 88 % 1016,4 hPa 0,0 l/m 3,4 km/h (1 Bft) SO 135 -3,6 C -1,9 C 5,1 km/h (1 Bft)
05.12.2019 16:32 13,5 C -1,9 C 1,3 C 52 % 88 % 1016,4 hPa 0,0 l/m 3,9 km/h (1 Bft) S-SO 157 -3,6 C -1,9 C 6,8 km/h (2 Bft)
05.12.2019 16:30 13,4 C -1,9 C 1,2 C 52 % 88 % 1016,4 hPa 0,0 l/m 3,4 km/h (1 Bft) SO 135 -3,6 C -1,9 C 6,8 km/h (2 Bft)
05.12.2019 16:28 13,6 C -1,9 C 1,2 C 53 % 88 % 1016,4 hPa 0,0 l/m 2,7 km/h (1 Bft) N-NO 22 -3,6 C -1,9 C 3,6 km/h (1 Bft)
05.12.2019 16:26 13,6 C -1,9 C 1,3 C 54 % 88 % 1016,4 hPa 0,0 l/m 2,2 km/h (1 Bft) N 360 -3,6 C -1,9 C 4,8 km/h (1 Bft)
05.12.2019 16:24 13,6 C -1,7 C 1,3 C 54 % 88 % 1016,4 hPa 0,0 l/m 1,9 km/h (1 Bft) NO 45 -3,4 C -1,7 C 4,8 km/h (1 Bft)
05.12.2019 16:22 13,6 C -1,7 C 1,2 C 54 % 88 % 1016,4 hPa 0,0 l/m 1,2 km/h (1 Bft) NO 45 -3,4 C -1,7 C 4,6 km/h (1 Bft)
05.12.2019 16:20 13,6 C -1,7 C 1,2 C 54 % 88 % 1016,2 hPa 0,0 l/m 0,7 km/h (0 Bft) O-NO 67 -3,4 C -1,7 C 0,0 km/h (0 Bft)
05.12.2019 16:18 13,6 C -1,7 C 1,2 C 54 % 88 % 1016,2 hPa 0,0 l/m 0,7 km/h (0 Bft) S 180 -3,4 C -1,7 C 0,0 km/h (0 Bft)
05.12.2019 16:16 13,6 C -1,7 C 1,3 C 54 % 88 % 1016,2 hPa 0,0 l/m 1,0 km/h (0 Bft) N-NO 22 -3,4 C -1,7 C 2,7 km/h (1 Bft)
05.12.2019 16:14 13,6 C -1,7 C 1,5 C 54 % 88 % 1016,2 hPa 0,0 l/m 0,7 km/h (0 Bft) N-NW 337 -3,4 C -1,7 C 2,7 km/h (1 Bft)
05.12.2019 16:12 13,6 C -1,7 C 1,5 C 54 % 88 % 1016,2 hPa 0,0 l/m 0,7 km/h (0 Bft) W 270 -3,4 C -1,7 C 0,0 km/h (0 Bft)
05.12.2019 16:10 13,6 C -1,7 C 1,6 C 54 % 88 % 1016,2 hPa 0,0 l/m 1,0 km/h (0 Bft) N-NW 337 -3,4 C -1,7 C 0,0 km/h (0 Bft)
05.12.2019 16:08 13,6 C -1,7 C 1,6 C 54 % 88 % 1016,2 hPa 0,0 l/m 1,4 km/h (1 Bft) NW 315 -3,4 C -1,7 C 3,4 km/h (1 Bft)
05.12.2019 16:06 13,6 C -1,7 C 1,8 C 54 % 87 % 1016,2 hPa 0,0 l/m 1,4 km/h (1 Bft) S-SO 157 -3,6 C -1,7 C 3,4 km/h (1 Bft)
05.12.2019 16:04 13,6 C -1,7 C 1,8 C 54 % 87 % 1016,2 hPa 0,0 l/m 1,4 km/h (1 Bft) N 360 -3,6 C -1,7 C 4,3 km/h (1 Bft)
05.12.2019 16:02 13,6 C -1,9 C 1,9 C 54 % 87 % 1016,2 hPa 0,0 l/m 1,9 km/h (1 Bft) O 90 -3,8 C -1,9 C 4,3 km/h (1 Bft)
05.12.2019 16:00 13,6 C -1,9 C 1,9 C 54 % 87 % 1016,3 hPa 0,0 l/m 1,9 km/h (1 Bft) S-SO 157 -3,8 C -1,9 C 2,9 km/h (1 Bft)
05.12.2019 15:58 13,6 C -1,9 C 1,9 C 54 % 87 % 1016,3 hPa 0,0 l/m 2,2 km/h (1 Bft) S-SO 157 -3,8 C -1,9 C 3,1 km/h (1 Bft)
05.12.2019 15:56 13,6 C -1,9 C 1,8 C 54 % 87 % 1016,3 hPa 0,0 l/m 2,7 km/h (1 Bft) S 180 -3,8 C -1,9 C 3,1 km/h (1 Bft)
05.12.2019 15:54 13,6 C -1,9 C 1,8 C 54 % 87 % 1016,3 hPa 0,0 l/m 3,6 km/h (1 Bft) S-SO 157 -3,8 C -1,9 C 5,6 km/h (1 Bft)
05.12.2019 15:52 13,6 C -1,9 C 1,8 C 54 % 87 % 1016,3 hPa 0,0 l/m 4,3 km/h (1 Bft) O-SO 112 -3,8 C -1,9 C 5,6 km/h (1 Bft)
05.12.2019 15:50 13,6 C -1,9 C 1,8 C 54 % 87 % 1016,3 hPa 0,0 l/m 4,6 km/h (1 Bft) SO 135 -3,8 C -1,9 C 4,8 km/h (1 Bft)
05.12.2019 15:48 13,7 C -1,9 C 1,6 C 54 % 87 % 1016,3 hPa 0,0 l/m 5,1 km/h (1 Bft) SO 135 -3,8 C -1,9 C 4,8 km/h (1 Bft)
05.12.2019 15:46 13,7 C -1,9 C 1,6 C 54 % 87 % 1016,3 hPa 0,0 l/m 5,3 km/h (1 Bft) S-SO 157 -3,8 C -1,9 C 8,2 km/h (2 Bft)
05.12.2019 15:44 13,7 C -1,8 C 1,8 C 54 % 87 % 1016,3 hPa 0,0 l/m 5,3 km/h (1 Bft) S-SO 157 -3,7 C -1,8 C 8,2 km/h (2 Bft)
05.12.2019 15:42 13,7 C -1,8 C 1,8 C 54 % 87 % 1016,3 hPa 0,0 l/m 5,1 km/h (1 Bft) S-SO 157 -3,7 C -1,8 C 7,5 km/h (2 Bft)
05.12.2019 15:40 13,7 C -1,8 C 1,8 C 54 % 87 % 1016,3 hPa 0,0 l/m 4,1 km/h (1 Bft) S-SO 157 -3,7 C -1,8 C 7,5 km/h (2 Bft)
05.12.2019 15:38 13,7 C -1,8 C 1,8 C 54 % 87 % 1016,3 hPa 0,0 l/m 3,6 km/h (1 Bft) S 180 -3,7 C -1,8 C 7,2 km/h (2 Bft)
05.12.2019 15:36 13,6 C -1,6 C 1,8 C 54 % 87 % 1016,3 hPa 0,0 l/m 3,4 km/h (1 Bft) SO 135 -3,5 C -1,6 C 7,2 km/h (2 Bft)
05.12.2019 15:34 13,6 C -1,8 C 1,8 C 54 % 87 % 1016,3 hPa 0,0 l/m 3,1 km/h (1 Bft) S-SO 157 -3,7 C -1,8 C 5,1 km/h (1 Bft)
05.12.2019 15:32 13,6 C -1,8 C 1,6 C 54 % 87 % 1016,3 hPa 0,0 l/m 2,9 km/h (1 Bft) SO 135 -3,7 C -1,8 C 5,1 km/h (1 Bft)
05.12.2019 15:30 13,6 C -1,7 C 1,5 C 54 % 87 % 1016,3 hPa 0,0 l/m 2,9 km/h (1 Bft) NW 315 -3,6 C -1,7 C 3,9 km/h (1 Bft)
05.12.2019 15:28 13,6 C -1,7 C 1,5 C 54 % 87 % 1016,3 hPa 0,0 l/m 3,1 km/h (1 Bft) O-SO 112 -3,6 C -1,7 C 4,8 km/h (1 Bft)
05.12.2019 15:26 13,6 C -1,7 C 1,6 C 54 % 87 % 1016,3 hPa 0,0 l/m 3,1 km/h (1 Bft) S-SO 157 -3,6 C -1,7 C 4,8 km/h (1 Bft)
05.12.2019 15:24 13,6 C -1,8 C 1,6 C 54 % 87 % 1016,3 hPa 0,0 l/m 3,9 km/h (1 Bft) S-SW 202 -3,7 C -1,8 C 4,3 km/h (1 Bft)
05.12.2019 15:22 13,6 C -1,8 C 1,8 C 54 % 87 % 1016,3 hPa 0,0 l/m 4,8 km/h (1 Bft) S-SW 202 -3,7 C -1,8 C 4,3 km/h (1 Bft)
05.12.2019 15:20 13,6 C -1,8 C 1,8 C 54 % 87 % 1016,6 hPa 0,0 l/m 5,3 km/h (1 Bft) O-SO 112 -3,7 C -1,8 C 4,6 km/h (1 Bft)
05.12.2019 15:18 13,6 C -1,9 C 1,9 C 54 % 87 % 1016,6 hPa 0,0 l/m 5,8 km/h (2 Bft) N-NO 22 -3,8 C -1,9 C 4,6 km/h (1 Bft)
05.12.2019 15:16 13,6 C -1,9 C 1,9 C 54 % 87 % 1016,6 hPa 0,0 l/m 5,8 km/h (2 Bft) O-SO 112 -3,8 C -1,9 C 5,1 km/h (1 Bft)
05.12.2019 15:14 13,6 C -1,8 C 1,9 C 54 % 87 % 1016,6 hPa 0,0 l/m 5,8 km/h (2 Bft) S-SO 157 -3,7 C -1,8 C 11,6 km/h (2 Bft)
05.12.2019 15:12 13,8 C -1,8 C 1,9 C 54 % 87 % 1016,6 hPa 0,0 l/m 5,1 km/h (1 Bft) S 180 -3,7 C -1,8 C 11,6 km/h (2 Bft)
05.12.2019 15:10 13,8 C -1,6 C 1,8 C 54 % 87 % 1016,6 hPa 0,0 l/m 3,4 km/h (1 Bft) S-SO 157 -3,5 C -1,6 C 6,3 km/h (2 Bft)
05.12.2019 15:08 13,8 C -1,6 C 1,5 C 54 % 87 % 1016,6 hPa 0,0 l/m 2,2 km/h (1 Bft) S-SO 157 -3,5 C -1,6 C 5,8 km/h (2 Bft)
05.12.2019 15:06 13,8 C -1,6 C 1,5 C 54 % 87 % 1016,6 hPa 0,0 l/m 1,7 km/h (1 Bft) SO 135 -3,5 C -1,6 C 5,8 km/h (2 Bft)
05.12.2019 15:04 13,8 C -1,6 C 1,6 C 54 % 87 % 1016,6 hPa 0,0 l/m 1,0 km/h (0 Bft) SO 135 -3,5 C -1,6 C 2,9 km/h (1 Bft)
05.12.2019 15:02 13,8 C -1,5 C 2,0 C 54 % 87 % 1016,6 hPa 0,0 l/m 0,5 km/h (0 Bft) O-NO 67 -3,4 C -1,5 C 0,0 km/h (0 Bft)
05.12.2019 15:00 13,8 C -1,5 C 2,0 C 54 % 87 % 1016,4 hPa 0,0 l/m 0,7 km/h (0 Bft) NW 315 -3,4 C -1,5 C 0,0 km/h (0 Bft)
05.12.2019 14:58 13,8 C -1,5 C 2,0 C 54 % 87 % 1016,4 hPa 0,0 l/m 1,2 km/h (1 Bft) NO 45 -3,4 C -1,5 C 0,0 km/h (0 Bft)
05.12.2019 14:56 13,8 C -1,5 C 2,0 C 54 % 87 % 1016,4 hPa 0,0 l/m 1,4 km/h (1 Bft) O 90 -3,4 C -1,5 C 3,6 km/h (1 Bft)
05.12.2019 14:54 13,8 C -1,5 C 2,1 C 54 % 87 % 1016,4 hPa 0,0 l/m 2,7 km/h (1 Bft) S 180 -3,4 C -1,5 C 3,6 km/h (1 Bft)
05.12.2019 14:52 13,8 C -1,5 C 2,0 C 54 % 87 % 1016,4 hPa 0,0 l/m 3,4 km/h (1 Bft) S 180 -3,4 C -1,5 C 3,1 km/h (1 Bft)
05.12.2019 14:50 13,8 C -1,6 C 1,9 C 54 % 87 % 1016,4 hPa 0,0 l/m 3,6 km/h (1 Bft) SW 225 -3,5 C -1,6 C 3,1 km/h (1 Bft)
05.12.2019 14:48 13,8 C -1,6 C 1,6 C 54 % 87 % 1016,4 hPa 0,0 l/m 3,6 km/h (1 Bft) S-SW 202 -3,5 C -1,6 C 3,1 km/h (1 Bft)
05.12.2019 14:46 13,8 C -1,6 C 1,5 C 54 % 87 % 1016,4 hPa 0,0 l/m 3,4 km/h (1 Bft) S-SO 157 -3,5 C -1,6 C 10,9 km/h (2 Bft)
05.12.2019 14:44 13,8 C -1,6 C 1,9 C 54 % 87 % 1016,4 hPa 0,0 l/m 2,9 km/h (1 Bft) S-SO 157 -3,5 C -1,6 C 10,9 km/h (2 Bft)
05.12.2019 14:42 13,8 C -1,5 C 2,0 C 54 % 87 % 1016,4 hPa 0,0 l/m 1,4 km/h (1 Bft) O-SO 112 -3,4 C -1,5 C 4,3 km/h (1 Bft)
05.12.2019 14:40 13,8 C -1,5 C 2,0 C 54 % 87 % 1016,6 hPa 0,0 l/m 0,7 km/h (0 Bft) SO 135 -3,4 C -1,5 C 4,1 km/h (1 Bft)
05.12.2019 14:38 13,8 C -1,5 C 2,0 C 54 % 87 % 1016,6 hPa 0,0 l/m 0,7 km/h (0 Bft) S 180 -3,4 C -1,5 C 2,9 km/h (1 Bft)
05.12.2019 14:36 13,9 C -1,5 C 2,2 C 54 % 87 % 1016,6 hPa 0,0 l/m 0,5 km/h (0 Bft) S-SO 157 -3,4 C -1,5 C 0,0 km/h (0 Bft)
05.12.2019 14:34 13,8 C -1,5 C 2,3 C 54 % 87 % 1016,6 hPa 0,0 l/m 0,5 km/h (0 Bft) N 360 -3,4 C -1,5 C 0,0 km/h (0 Bft)
05.12.2019 14:32 13,9 C -1,5 C 2,3 C 54 % 87 % 1016,6 hPa 0,0 l/m 0,5 km/h (0 Bft) N-NO 22 -3,4 C -1,5 C 0,0 km/h (0 Bft)
05.12.2019 14:30 13,8 C -1,6 C 2,3 C 54 % 87 % 1016,6 hPa 0,0 l/m 1,2 km/h (1 Bft) S-SO 157 -3,5 C -1,6 C 3,6 km/h (1 Bft)
05.12.2019 14:28 13,9 C -1,6 C 2,3 C 53 % 87 % 1016,6 hPa 0,0 l/m 1,9 km/h (1 Bft) S-SO 157 -3,5 C -1,6 C 3,6 km/h (1 Bft)
05.12.2019 14:26 13,9 C -1,6 C 2,3 C 53 % 87 % 1016,6 hPa 0,0 l/m 3,1 km/h (1 Bft) S-SO 157 -3,5 C -1,6 C 0,0 km/h (0 Bft)
05.12.2019 14:24 13,9 C -1,6 C 2,3 C 53 % 87 % 1016,6 hPa 0,0 l/m 4,1 km/h (1 Bft) SO 135 -3,5 C -1,6 C 3,6 km/h (1 Bft)
05.12.2019 14:22 13,9 C -1,6 C 2,2 C 53 % 87 % 1016,6 hPa 0,0 l/m 4,8 km/h (1 Bft) SW 225 -3,5 C -1,6 C 6,5 km/h (2 Bft)
05.12.2019 14:20 13,9 C -1,6 C 2,2 C 53 % 87 % 1016,8 hPa 0,0 l/m 5,6 km/h (1 Bft) S-SO 157 -3,5 C -1,6 C 6,5 km/h (2 Bft)
05.12.2019 14:18 13,9 C -1,6 C 2,2 C 53 % 87 % 1016,8 hPa 0,0 l/m 4,8 km/h (1 Bft) S-SO 157 -3,5 C -1,6 C 7,2 km/h (2 Bft)
05.12.2019 14:16 13,9 C -1,6 C 2,3 C 53 % 87 % 1016,8 hPa 0,0 l/m 4,6 km/h (1 Bft) SO 135 -3,5 C -1,6 C 7,2 km/h (2 Bft)
05.12.2019 14:14 13,9 C -1,6 C 2,4 C 53 % 87 % 1016,8 hPa 0,0 l/m 3,9 km/h (1 Bft) S-SO 157 -3,5 C -1,6 C 8,7 km/h (2 Bft)
05.12.2019 14:12 13,9 C -1,6 C 2,4 C 53 % 87 % 1016,8 hPa 0,0 l/m 3,4 km/h (1 Bft) S-SO 157 -3,5 C -1,6 C 8,7 km/h (2 Bft)
05.12.2019 14:10 13,8 C -1,6 C 2,4 C 53 % 87 % 1016,8 hPa 0,0 l/m 3,4 km/h (1 Bft) S 180 -3,5 C -1,6 C 5,3 km/h (1 Bft)
05.12.2019 14:08 13,9 C -1,6 C 2,4 C 53 % 87 % 1016,8 hPa 0,0 l/m 3,6 km/h (1 Bft) S-SO 157 -3,5 C -1,6 C 5,1 km/h (1 Bft)
05.12.2019 14:06 13,8 C -1,5 C 2,4 C 53 % 87 % 1016,8 hPa 0,0 l/m 3,9 km/h (1 Bft) S 180 -3,4 C -1,5 C 4,6 km/h (1 Bft)
05.12.2019 14:04 13,9 C -1,5 C 2,4 C 53 % 87 % 1016,8 hPa 0,0 l/m 4,3 km/h (1 Bft) O-SO 112 -3,4 C -1,5 C 4,6 km/h (1 Bft)
05.12.2019 14:02 13,8 C -1,6 C 2,3 C 53 % 87 % 1016,8 hPa 0,0 l/m 5,1 km/h (1 Bft) S-SO 157 -3,5 C -1,6 C 6,0 km/h (2 Bft)
05.12.2019 14:00 13,8 C -1,6 C 2,3 C 53 % 87 % 1016,9 hPa 0,0 l/m 5,3 km/h (1 Bft) S-SO 157 -3,5 C -1,6 C 7,0 km/h (2 Bft)
05.12.2019 13:58 13,8 C -1,6 C 2,3 C 53 % 87 % 1016,9 hPa 0,0 l/m 6,0 km/h (2 Bft) O-SO 112 -3,5 C -1,6 C 7,0 km/h (2 Bft)
05.12.2019 13:56 13,8 C -1,8 C 2,3 C 53 % 87 % 1016,9 hPa 0,0 l/m 6,8 km/h (2 Bft) S-SO 157 -3,7 C -2,2 C 6,8 km/h (2 Bft)
05.12.2019 13:54 14,0 C -1,8 C 2,3 C 53 % 86 % 1016,9 hPa 0,0 l/m 7,2 km/h (2 Bft) S 180 -3,8 C -2,7 C 8,4 km/h (2 Bft)
05.12.2019 13:52 13,8 C -1,8 C 2,3 C 53 % 86 % 1016,9 hPa 0,0 l/m 6,8 km/h (2 Bft) S 180 -3,8 C -2,2 C 8,4 km/h (2 Bft)
05.12.2019 13:50 13,8 C -1,6 C 2,3 C 53 % 86 % 1016,9 hPa 0,0 l/m 6,8 km/h (2 Bft) SO 135 -3,6 C -2,0 C 13,0 km/h (3 Bft)
05.12.2019 13:48 14,0 C -1,6 C 2,2 C 53 % 87 % 1016,9 hPa 0,0 l/m 6,5 km/h (2 Bft) S-SO 157 -3,5 C -1,7 C 13,0 km/h (3 Bft)
05.12.2019 13:46 14,0 C -1,6 C 2,2 C 53 % 87 % 1016,9 hPa 0,0 l/m 5,6 km/h (1 Bft) S-SO 157 -3,5 C -1,6 C 10,6 km/h (2 Bft)
05.12.2019 13:44 14,0 C -1,6 C 1,9 C 53 % 87 % 1016,9 hPa 0,0 l/m 4,6 km/h (1 Bft) S-SO 157 -3,5 C -1,6 C 9,9 km/h (2 Bft)
05.12.2019 13:42 14,0 C -1,6 C 1,9 C 53 % 87 % 1016,9 hPa 0,0 l/m 3,4 km/h (1 Bft) O-SO 112 -3,5 C -1,6 C 7,2 km/h (2 Bft)
05.12.2019 13:40 14,0 C -1,6 C 1,9 C 53 % 87 % 1016,9 hPa 0,0 l/m 3,6 km/h (1 Bft) O-NO 67 -3,5 C -1,6 C 9,9 km/h (2 Bft)
05.12.2019 13:38 14,0 C -1,6 C 2,4 C 53 % 87 % 1016,9 hPa 0,0 l/m 3,4 km/h (1 Bft) SO 135 -3,5 C -1,6 C 9,9 km/h (2 Bft)
05.12.2019 13:36 14,0 C -1,6 C 2,4 C 53 % 87 % 1016,9 hPa 0,0 l/m 2,9 km/h (1 Bft) S-SO 157 -3,5 C -1,6 C 9,9 km/h (2 Bft)
05.12.2019 13:34 14,0 C -1,6 C 2,3 C 53 % 87 % 1016,9 hPa 0,0 l/m 2,9 km/h (1 Bft) S-SO 157 -3,5 C -1,6 C 9,9 km/h (2 Bft)
05.12.2019 13:32 14,0 C -1,5 C 2,1 C 53 % 87 % 1016,9 hPa 0,0 l/m 3,4 km/h (1 Bft) W-SW 247 -3,4 C -1,5 C 5,1 km/h (1 Bft)
05.12.2019 13:30 13,9 C -1,5 C 1,9 C 53 % 87 % 1016,9 hPa 0,0 l/m 4,1 km/h (1 Bft) S 180 -3,4 C -1,5 C 8,0 km/h (2 Bft)
05.12.2019 13:28 13,9 C -1,5 C 1,9 C 53 % 87 % 1016,9 hPa 0,0 l/m 3,9 km/h (1 Bft) SO 135 -3,4 C -1,5 C 8,0 km/h (2 Bft)
05.12.2019 13:26 13,9 C -1,5 C 1,9 C 53 % 87 % 1016,9 hPa 0,0 l/m 3,6 km/h (1 Bft) S 180 -3,4 C -1,5 C 10,4 km/h (2 Bft)
05.12.2019 13:24 14,0 C -1,6 C 2,0 C 53 % 87 % 1016,9 hPa 0,0 l/m 4,1 km/h (1 Bft) N-NO 22 -3,5 C -1,6 C 10,4 km/h (2 Bft)
05.12.2019 13:22 13,9 C -1,6 C 2,6 C 53 % 87 % 1016,9 hPa 0,0 l/m 4,3 km/h (1 Bft) NW 315 -3,5 C -1,6 C 5,6 km/h (1 Bft)
05.12.2019 13:20 13,9 C -1,6 C 2,6 C 53 % 87 % 1017,0 hPa 0,0 l/m 4,1 km/h (1 Bft) O-SO 112 -3,5 C -1,6 C 4,8 km/h (1 Bft)
05.12.2019 13:18 13,9 C -1,6 C 2,4 C 53 % 87 % 1017,0 hPa 0,0 l/m 4,3 km/h (1 Bft) S 180 -3,5 C -1,6 C 6,3 km/h (2 Bft)
05.12.2019 13:16 13,9 C -1,6 C 2,4 C 53 % 87 % 1017,0 hPa 0,0 l/m 4,6 km/h (1 Bft) S 180 -3,5 C -1,6 C 7,5 km/h (2 Bft)
05.12.2019 13:14 13,9 C -1,8 C 2,4 C 53 % 86 % 1017,0 hPa 0,0 l/m 5,1 km/h (1 Bft) SO 135 -3,8 C -1,8 C 7,5 km/h (2 Bft)
05.12.2019 13:12 13,9 C -1,8 C 2,4 C 53 % 86 % 1017,0 hPa 0,0 l/m 5,1 km/h (1 Bft) S 180 -3,8 C -1,8 C 6,3 km/h (2 Bft)
05.12.2019 13:10 13,9 C -1,6 C 2,4 C 53 % 86 % 1017,0 hPa 0,0 l/m 5,6 km/h (1 Bft) S-SO 157 -3,6 C -1,6 C 6,3 km/h (2 Bft)
05.12.2019 13:08 13,9 C -1,6 C 2,4 C 53 % 86 % 1017,0 hPa 0,0 l/m 5,8 km/h (2 Bft) S 180 -3,6 C -1,6 C 4,3 km/h (1 Bft)
05.12.2019 13:06 14,1 C -1,6 C 2,4 C 53 % 86 % 1017,0 hPa 0,0 l/m 5,8 km/h (2 Bft) S-SO 157 -3,6 C -1,6 C 8,0 km/h (2 Bft)
05.12.2019 13:04 14,1 C -1,6 C 2,4 C 53 % 86 % 1017,0 hPa 0,0 l/m 6,0 km/h (2 Bft) S 180 -3,6 C -1,6 C 8,0 km/h (2 Bft)
05.12.2019 13:02 13,9 C -1,6 C 2,4 C 52 % 86 % 1017,0 hPa 0,0 l/m 5,6 km/h (1 Bft) S 180 -3,6 C -1,6 C 7,7 km/h (2 Bft)
05.12.2019 13:00 14,1 C -1,6 C 2,4 C 53 % 86 % 1017,3 hPa 0,0 l/m 5,6 km/h (1 Bft) SO 135 -3,6 C -1,6 C 9,2 km/h (2 Bft)
05.12.2019 12:58 14,1 C -1,6 C 2,4 C 53 % 86 % 1017,3 hPa 0,0 l/m 4,6 km/h (1 Bft) S-SO 157 -3,6 C -1,6 C 9,2 km/h (2 Bft)
05.12.2019 12:56 14,1 C -1,6 C 2,4 C 53 % 87 % 1017,3 hPa 0,0 l/m 3,6 km/h (1 Bft) S 180 -3,5 C -1,6 C 6,0 km/h (2 Bft)
05.12.2019 12:54 14,1 C -1,5 C 2,3 C 53 % 87 % 1017,3 hPa 0,0 l/m 3,4 km/h (1 Bft) SO 135 -3,4 C -1,5 C 6,0 km/h (2 Bft)
05.12.2019 12:52 14,1 C -1,5 C 2,3 C 53 % 87 % 1017,3 hPa 0,0 l/m 2,7 km/h (1 Bft) SO 135 -3,4 C -1,5 C 4,1 km/h (1 Bft)
05.12.2019 12:50 14,1 C -1,5 C 2,3 C 53 % 87 % 1017,3 hPa 0,0 l/m 2,4 km/h (1 Bft) S 180 -3,4 C -1,5 C 4,1 km/h (1 Bft)
05.12.2019 12:48 14,1 C -1,5 C 2,3 C 53 % 87 % 1017,3 hPa 0,0 l/m 2,4 km/h (1 Bft) S 180 -3,4 C -1,5 C 4,1 km/h (1 Bft)
05.12.2019 12:46 14,1 C -1,6 C 2,4 C 53 % 87 % 1017,3 hPa 0,0 l/m 3,1 km/h (1 Bft) S 180 -3,5 C -1,6 C 4,3 km/h (1 Bft)
05.12.2019 12:44 14,1 C -1,6 C 2,3 C 53 % 87 % 1017,3 hPa 0,0 l/m 3,6 km/h (1 Bft) S 180 -3,5 C -1,6 C 4,3 km/h (1 Bft)
05.12.2019 12:42 14,1 C -1,8 C 2,4 C 53 % 87 % 1017,3 hPa 0,0 l/m 4,1 km/h (1 Bft) S 180 -3,7 C -1,8 C 4,8 km/h (1 Bft)
05.12.2019 12:40 14,1 C -1,8 C 2,4 C 53 % 87 % 1017,6 hPa 0,0 l/m 4,3 km/h (1 Bft) S-SO 157 -3,7 C -1,8 C 6,0 km/h (2 Bft)
05.12.2019 12:38 14,1 C -1,8 C 2,4 C 53 % 87 % 1017,6 hPa 0,0 l/m 4,6 km/h (1 Bft) S 180 -3,7 C -1,8 C 7,7 km/h (2 Bft)
05.12.2019 12:36 14,1 C -1,8 C 2,4 C 53 % 87 % 1017,6 hPa 0,0 l/m 4,8 km/h (1 Bft) SO 135 -3,7 C -1,8 C 8,7 km/h (2 Bft)
05.12.2019 12:34 14,1 C -1,8 C 2,4 C 53 % 87 % 1017,6 hPa 0,0 l/m 5,1 km/h (1 Bft) S-SO 157 -3,7 C -1,8 C 8,7 km/h (2 Bft)
05.12.2019 12:32 14,2 C -1,8 C 2,4 C 53 % 87 % 1017,6 hPa 0,0 l/m 4,8 km/h (1 Bft) S-SO 157 -3,7 C -1,8 C 5,1 km/h (1 Bft)
05.12.2019 12:30 14,2 C -1,8 C 2,3 C 53 % 87 % 1017,6 hPa 0,0 l/m 5,3 km/h (1 Bft) S-SO 157 -3,7 C -1,8 C 5,8 km/h (2 Bft)
05.12.2019 12:28 14,1 C -1,8 C 2,2 C 53 % 87 % 1017,6 hPa 0,0 l/m 5,6 km/h (1 Bft) S-SO 157 -3,7 C -1,8 C 7,5 km/h (2 Bft)
05.12.2019 12:26 14,2 C -1,8 C 2,1 C 53 % 87 % 1017,6 hPa 0,0 l/m 5,3 km/h (1 Bft) S-SO 157 -3,7 C -1,8 C 7,5 km/h (2 Bft)
05.12.2019 12:24 14,2 C -1,6 C 2,0 C 53 % 87 % 1017,6 hPa 0,0 l/m 4,3 km/h (1 Bft) S-SO 157 -3,5 C -1,6 C 4,8 km/h (1 Bft)
05.12.2019 12:22 14,2 C -1,6 C 2,1 C 53 % 87 % 1017,6 hPa 0,0 l/m 3,6 km/h (1 Bft) SW 225 -3,5 C -1,6 C 10,6 km/h (2 Bft)
05.12.2019 12:20 14,2 C -1,6 C 2,1 C 53 % 87 % 1017,5 hPa 0,0 l/m 3,6 km/h (1 Bft) O-NO 67 -3,5 C -1,6 C 10,6 km/h (2 Bft)
05.12.2019 12:18 14,2 C -1,6 C 2,0 C 53 % 87 % 1017,5 hPa 0,0 l/m 2,9 km/h (1 Bft) S-SW 202 -3,5 C -1,6 C 6,5 km/h (2 Bft)
05.12.2019 12:16 14,2 C -1,6 C 2,0 C 53 % 87 % 1017,5 hPa 0,0 l/m 2,4 km/h (1 Bft) SW 225 -3,5 C -1,6 C 3,9 km/h (1 Bft)
05.12.2019 12:14 14,2 C -1,6 C 1,9 C 53 % 87 % 1017,5 hPa 0,0 l/m 2,2 km/h (1 Bft) S-SO 157 -3,5 C -1,6 C 3,1 km/h (1 Bft)
05.12.2019 12:12 14,2 C -1,5 C 1,6 C 53 % 87 % 1017,5 hPa 0,0 l/m 2,2 km/h (1 Bft) N 360 -3,4 C -1,5 C 4,6 km/h (1 Bft)
05.12.2019 12:10 14,2 C -1,8 C 2,1 C 53 % 87 % 1017,5 hPa 0,0 l/m 3,6 km/h (1 Bft) SW 225 -3,7 C -1,8 C 4,6 km/h (1 Bft)
05.12.2019 12:08 14,2 C -1,8 C 2,1 C 53 % 87 % 1017,5 hPa 0,0 l/m 3,6 km/h (1 Bft) SW 225 -3,7 C -1,8 C 4,6 km/h (1 Bft)
05.12.2019 12:06 14,2 C -1,8 C 2,1 C 53 % 87 % 1017,5 hPa 0,0 l/m 3,6 km/h (1 Bft) SW 225 -3,7 C -1,8 C 4,6 km/h (1 Bft)
05.12.2019 12:04 14,2 C -1,8 C 2,1 C 53 % 87 % 1017,5 hPa 0,0 l/m 3,6 km/h (1 Bft) SW 225 -3,7 C -1,8 C 4,6 km/h (1 Bft)
05.12.2019 12:02 14,2 C -1,8 C 2,1 C 52 % 87 % 1017,5 hPa 0,0 l/m 3,6 km/h (1 Bft) SW 225 -3,7 C -1,8 C 4,6 km/h (1 Bft)
05.12.2019 12:00 14,2 C -1,8 C 2,1 C 52 % 87 % 1017,7 hPa 0,0 l/m 3,6 km/h (1 Bft) SW 225 -3,7 C -1,8 C 8,2 km/h (2 Bft)
05.12.2019 11:58 14,2 C -1,8 C 2,1 C 53 % 87 % 1017,7 hPa 0,0 l/m 4,1 km/h (1 Bft) S-SO 157 -3,7 C -1,8 C 9,9 km/h (2 Bft)
05.12.2019 11:56 14,2 C -1,8 C 2,0 C 53 % 87 % 1017,7 hPa 0,0 l/m 3,9 km/h (1 Bft) O-SO 112 -3,7 C -1,8 C 9,9 km/h (2 Bft)
05.12.2019 11:54 14,2 C -1,8 C 2,0 C 52 % 87 % 1017,7 hPa 0,0 l/m 4,6 km/h (1 Bft) S 180 -3,7 C -1,8 C 3,4 km/h (1 Bft)
05.12.2019 11:52 14,2 C -1,8 C 1,9 C 52 % 87 % 1017,7 hPa 0,0 l/m 5,1 km/h (1 Bft) S 180 -3,7 C -1,8 C 10,4 km/h (2 Bft)
05.12.2019 11:50 14,1 C -1,8 C 1,8 C 52 % 87 % 1017,7 hPa 0,0 l/m 5,3 km/h (1 Bft) O-NO 67 -3,7 C -1,8 C 10,4 km/h (2 Bft)
05.12.2019 11:48 14,1 C -1,8 C 1,9 C 52 % 87 % 1017,7 hPa 0,0 l/m 5,3 km/h (1 Bft) SO 135 -3,7 C -1,8 C 7,2 km/h (2 Bft)
05.12.2019 11:46 14,1 C -1,8 C 1,9 C 52 % 87 % 1017,7 hPa 0,0 l/m 5,6 km/h (1 Bft) W-NW 292 -3,7 C -1,8 C 7,2 km/h (2 Bft)
05.12.2019 11:44 14,2 C -1,8 C 1,9 C 52 % 87 % 1017,7 hPa 0,0 l/m 4,6 km/h (1 Bft) SO 135 -3,7 C -1,8 C 5,6 km/h (1 Bft)
05.12.2019 11:42 14,1 C -1,8 C 1,9 C 52 % 87 % 1017,7 hPa 0,0 l/m 3,9 km/h (1 Bft) S 180 -3,7 C -1,8 C 5,6 km/h (1 Bft)
05.12.2019 11:40 14,1 C -1,8 C 1,9 C 52 % 87 % 1017,8 hPa 0,0 l/m 3,6 km/h (1 Bft) S-SO 157 -3,7 C -1,8 C 5,8 km/h (2 Bft)
05.12.2019 11:38 14,1 C -1,8 C 1,9 C 52 % 87 % 1017,8 hPa 0,0 l/m 3,4 km/h (1 Bft) S-SO 157 -3,7 C -1,8 C 5,8 km/h (2 Bft)
05.12.2019 11:36 14,1 C -1,8 C 1,9 C 52 % 87 % 1017,8 hPa 0,0 l/m 3,1 km/h (1 Bft) S 180 -3,7 C -1,8 C 4,6 km/h (1 Bft)
05.12.2019 11:34 14,3 C -1,6 C 1,9 C 52 % 87 % 1017,8 hPa 0,0 l/m 2,7 km/h (1 Bft) S 180 -3,5 C -1,6 C 4,3 km/h (1 Bft)
05.12.2019 11:32 14,3 C -1,8 C 1,8 C 52 % 87 % 1017,8 hPa 0,0 l/m 2,9 km/h (1 Bft) O-NO 67 -3,7 C -1,8 C 6,0 km/h (2 Bft)
05.12.2019 11:30 14,1 C -1,8 C 1,6 C 52 % 87 % 1017,8 hPa 0,0 l/m 3,6 km/h (1 Bft) S-SW 202 -3,7 C -1,8 C 6,0 km/h (2 Bft)
05.12.2019 11:28 14,3 C -1,8 C 1,6 C 52 % 87 % 1017,8 hPa 0,0 l/m 3,4 km/h (1 Bft) O-NO 67 -3,7 C -1,8 C 5,8 km/h (2 Bft)
05.12.2019 11:26 14,3 C -1,8 C 1,6 C 52 % 87 % 1017,8 hPa 0,0 l/m 3,1 km/h (1 Bft) N-NW 337 -3,7 C -1,8 C 6,5 km/h (2 Bft)
05.12.2019 11:24 14,3 C -1,8 C 1,6 C 52 % 87 % 1017,8 hPa 0,0 l/m 3,4 km/h (1 Bft) SO 135 -3,7 C -1,8 C 6,5 km/h (2 Bft)
05.12.2019 11:22 14,3 C -1,7 C 1,5 C 52 % 87 % 1017,8 hPa 0,0 l/m 2,7 km/h (1 Bft) SO 135 -3,6 C -1,7 C 6,8 km/h (2 Bft)
05.12.2019 11:20 14,3 C -1,7 C 1,5 C 52 % 87 % 1017,8 hPa 0,0 l/m 2,7 km/h (1 Bft) SO 135 -3,6 C -1,7 C 6,8 km/h (2 Bft)
05.12.2019 11:18 14,3 C -1,7 C 1,4 C 52 % 87 % 1017,8 hPa 0,0 l/m 2,9 km/h (1 Bft) W-SW 247 -3,6 C -1,7 C 6,0 km/h (2 Bft)
05.12.2019 11:16 14,3 C -1,7 C 1,3 C 52 % 87 % 1017,8 hPa 0,0 l/m 3,4 km/h (1 Bft) SO 135 -3,6 C -1,7 C 3,9 km/h (1 Bft)
05.12.2019 11:14 14,3 C -1,7 C 1,4 C 52 % 87 % 1017,8 hPa 0,0 l/m 4,1 km/h (1 Bft) N 360 -3,6 C -1,7 C 3,4 km/h (1 Bft)
05.12.2019 11:12 14,3 C -1,9 C 1,2 C 52 % 87 % 1017,8 hPa 0,0 l/m 5,6 km/h (1 Bft) NO 45 -3,8 C -1,9 C 7,5 km/h (2 Bft)
05.12.2019 11:10 14,3 C -1,9 C 1,2 C 51 % 87 % 1017,8 hPa 0,0 l/m 6,3 km/h (2 Bft) N-NO 22 -3,8 C -1,9 C 7,5 km/h (2 Bft)
05.12.2019 11:08 14,3 C -2,0 C 1,2 C 51 % 87 % 1017,8 hPa 0,0 l/m 6,5 km/h (2 Bft) O-SO 112 -3,9 C -2,1 C 8,4 km/h (2 Bft)
05.12.2019 11:06 14,3 C -2,0 C 1,5 C 51 % 87 % 1017,8 hPa 0,0 l/m 6,5 km/h (2 Bft) S 180 -3,9 C -2,1 C 10,9 km/h (2 Bft)
05.12.2019 11:04 14,3 C -1,9 C 1,5 C 51 % 87 % 1017,8 hPa 0,0 l/m 6,5 km/h (2 Bft) S-SO 157 -3,8 C -2,0 C 10,9 km/h (2 Bft)
05.12.2019 11:02 14,2 C -1,9 C 1,5 C 51 % 87 % 1017,8 hPa 0,0 l/m 6,0 km/h (2 Bft) S-SO 157 -3,8 C -1,9 C 10,9 km/h (2 Bft)
05.12.2019 11:00 14,2 C -1,9 C 1,5 C 51 % 87 % 1018,1 hPa 0,0 l/m 5,6 km/h (1 Bft) SO 135 -3,8 C -1,9 C 11,1 km/h (2 Bft)
05.12.2019 10:58 14,2 C -1,9 C 1,5 C 51 % 87 % 1018,1 hPa 0,0 l/m 5,3 km/h (1 Bft) S-SO 157 -3,8 C -1,9 C 11,1 km/h (2 Bft)
05.12.2019 10:56 14,2 C -1,9 C 1,5 C 51 % 87 % 1018,1 hPa 0,0 l/m 5,6 km/h (1 Bft) O-NO 67 -3,8 C -1,9 C 6,5 km/h (2 Bft)
05.12.2019 10:54 14,2 C -2,0 C 1,5 C 51 % 87 % 1018,1 hPa 0,0 l/m 5,8 km/h (2 Bft) W-SW 247 -3,9 C -2,0 C 6,5 km/h (2 Bft)
05.12.2019 10:52 14,2 C -2,0 C 1,4 C 51 % 86 % 1018,1 hPa 0,0 l/m 6,3 km/h (2 Bft) S-SO 157 -4,0 C -2,0 C 7,0 km/h (2 Bft)
05.12.2019 10:50 14,4 C -2,0 C 1,4 C 51 % 86 % 1018,1 hPa 0,0 l/m 6,5 km/h (2 Bft) S-SO 157 -4,0 C -2,1 C 7,0 km/h (2 Bft)
05.12.2019 10:48 14,4 C -2,0 C 1,4 C 51 % 87 % 1018,1 hPa 0,0 l/m 7,0 km/h (2 Bft) SO 135 -3,9 C -2,7 C 12,8 km/h (3 Bft)
05.12.2019 10:46 14,4 C -2,0 C 1,4 C 51 % 86 % 1018,1 hPa 0,0 l/m 7,5 km/h (2 Bft) S-SW 202 -4,0 C -3,2 C 12,8 km/h (3 Bft)
05.12.2019 10:44 14,4 C -2,0 C 1,4 C 51 % 86 % 1018,1 hPa 0,0 l/m 7,0 km/h (2 Bft) S-SO 157 -4,0 C -2,7 C 10,1 km/h (2 Bft)
05.12.2019 10:42 14,4 C -2,0 C 1,4 C 51 % 86 % 1018,1 hPa 0,0 l/m 6,8 km/h (2 Bft) S-SO 157 -4,0 C -2,4 C 8,0 km/h (2 Bft)
05.12.2019 10:40 14,4 C -2,0 C 1,4 C 51 % 86 % 1018,1 hPa 0,0 l/m 6,8 km/h (2 Bft) S 180 -4,0 C -2,4 C 7,2 km/h (2 Bft)
05.12.2019 10:38 14,4 C -2,0 C 1,4 C 51 % 86 % 1018,1 hPa 0,0 l/m 7,2 km/h (2 Bft) S 180 -4,0 C -2,9 C 7,7 km/h (2 Bft)
05.12.2019 10:36 14,4 C -1,9 C 1,4 C 51 % 86 % 1018,1 hPa 0,0 l/m 6,8 km/h (2 Bft) S 180 -3,9 C -2,3 C 9,2 km/h (2 Bft)
05.12.2019 10:34 14,4 C -1,9 C 1,4 C 51 % 86 % 1018,1 hPa 0,0 l/m 6,5 km/h (2 Bft) S-SO 157 -3,9 C -2,0 C 9,2 km/h (2 Bft)
05.12.2019 10:32 14,4 C -2,0 C 1,4 C 50 % 86 % 1018,1 hPa 0,0 l/m 6,8 km/h (2 Bft) S-SO 157 -4,0 C -2,4 C 8,4 km/h (2 Bft)
05.12.2019 10:30 14,4 C -1,9 C 1,4 C 51 % 86 % 1018,1 hPa 0,0 l/m 7,2 km/h (2 Bft) S-SO 157 -3,9 C -2,8 C 14,2 km/h (3 Bft)
05.12.2019 10:28 14,4 C -1,9 C 1,4 C 51 % 86 % 1018,1 hPa 0,0 l/m 6,5 km/h (2 Bft) S-SO 157 -3,9 C -2,0 C 14,2 km/h (3 Bft)
05.12.2019 10:26 14,4 C -2,0 C 1,3 C 50 % 86 % 1018,1 hPa 0,0 l/m 6,0 km/h (2 Bft) S-SO 157 -4,0 C -2,0 C 7,0 km/h (2 Bft)
05.12.2019 10:24 14,4 C -2,0 C 1,3 C 50 % 86 % 1018,1 hPa 0,0 l/m 6,3 km/h (2 Bft) S-SO 157 -4,0 C -2,0 C 8,9 km/h (2 Bft)
05.12.2019 10:22 14,4 C -2,0 C 1,3 C 50 % 86 % 1018,1 hPa 0,0 l/m 6,3 km/h (2 Bft) S 180 -4,0 C -2,0 C 9,7 km/h (2 Bft)
05.12.2019 10:20 14,4 C -2,0 C 1,3 C 50 % 86 % 1018,2 hPa 0,0 l/m 5,3 km/h (1 Bft) S-SO 157 -4,0 C -2,0 C 9,7 km/h (2 Bft)
05.12.2019 10:18 14,4 C -2,0 C 1,2 C 50 % 87 % 1018,2 hPa 0,0 l/m 4,6 km/h (1 Bft) SO 135 -3,9 C -2,0 C 7,5 km/h (2 Bft)
05.12.2019 10:16 14,4 C -2,0 C 1,2 C 50 % 87 % 1018,2 hPa 0,0 l/m 5,1 km/h (1 Bft) S-SO 157 -3,9 C -2,0 C 7,5 km/h (2 Bft)
05.12.2019 10:14 14,4 C -2,0 C 1,2 C 50 % 86 % 1018,2 hPa 0,0 l/m 4,8 km/h (1 Bft) S-SO 157 -4,0 C -2,0 C 7,5 km/h (2 Bft)
05.12.2019 10:12 14,3 C -2,0 C 1,1 C 50 % 86 % 1018,2 hPa 0,0 l/m 4,8 km/h (1 Bft) S-SO 157 -4,0 C -2,0 C 8,2 km/h (2 Bft)
05.12.2019 10:10 14,3 C -2,0 C 1,1 C 50 % 86 % 1018,2 hPa 0,0 l/m 5,3 km/h (1 Bft) SW 225 -4,0 C -2,0 C 8,2 km/h (2 Bft)
05.12.2019 10:08 14,4 C -2,0 C 0,9 C 49 % 86 % 1018,2 hPa 0,0 l/m 5,8 km/h (2 Bft) SO 135 -4,0 C -2,0 C 6,3 km/h (2 Bft)
05.12.2019 10:06 14,3 C -2,0 C 0,9 C 49 % 86 % 1018,2 hPa 0,0 l/m 5,6 km/h (1 Bft) SO 135 -4,0 C -2,0 C 5,3 km/h (1 Bft)
05.12.2019 10:04 14,3 C -2,0 C 1,1 C 49 % 86 % 1018,2 hPa 0,0 l/m 5,1 km/h (1 Bft) S-SO 157 -4,0 C -2,0 C 5,3 km/h (1 Bft)
05.12.2019 10:02 14,3 C -2,0 C 1,1 C 49 % 86 % 1018,2 hPa 0,0 l/m 4,6 km/h (1 Bft) O-SO 112 -4,0 C -2,0 C 8,7 km/h (2 Bft)
05.12.2019 10:00 14,3 C -2,0 C 1,1 C 49 % 86 % 1018,1 hPa 0,0 l/m 4,6 km/h (1 Bft) S-SO 157 -4,0 C -2,0 C 8,7 km/h (2 Bft)
05.12.2019 09:58 14,5 C -2,0 C 1,1 C 49 % 87 % 1018,1 hPa 0,0 l/m 4,1 km/h (1 Bft) S-SO 157 -3,9 C -2,0 C 6,0 km/h (2 Bft)
05.12.2019 09:56 14,4 C -2,0 C 0,9 C 49 % 87 % 1018,1 hPa 0,0 l/m 4,1 km/h (1 Bft) S 180 -3,9 C -2,0 C 7,5 km/h (2 Bft)
05.12.2019 09:54 14,4 C -2,0 C 0,9 C 49 % 87 % 1018,1 hPa 0,0 l/m 4,8 km/h (1 Bft) SO 135 -3,9 C -2,0 C 7,5 km/h (2 Bft)
05.12.2019 09:52 14,4 C -2,0 C 0,9 C 49 % 87 % 1018,1 hPa 0,0 l/m 4,8 km/h (1 Bft) S 180 -3,9 C -2,0 C 7,2 km/h (2 Bft)
05.12.2019 09:50 14,6 C -2,0 C 0,9 C 49 % 87 % 1018,1 hPa 0,0 l/m 5,6 km/h (1 Bft) O-SO 112 -3,9 C -2,0 C 7,2 km/h (2 Bft)
05.12.2019 09:48 14,6 C -2,0 C 0,9 C 50 % 87 % 1018,1 hPa 0,0 l/m 6,5 km/h (2 Bft) S 180 -3,9 C -2,1 C 7,5 km/h (2 Bft)
05.12.2019 09:46 14,6 C -2,0 C 0,8 C 50 % 87 % 1018,1 hPa 0,0 l/m 7,0 km/h (2 Bft) S 180 -3,9 C -2,7 C 16,4 km/h (3 Bft)
05.12.2019 09:44 14,7 C -2,1 C 0,8 C 51 % 87 % 1018,1 hPa 0,0 l/m 6,3 km/h (2 Bft) S-SO 157 -4,0 C -2,1 C 9,7 km/h (2 Bft)
05.12.2019 09:42 14,7 C -2,0 C 0,6 C 52 % 87 % 1018,1 hPa 0,0 l/m 6,3 km/h (2 Bft) W 270 -3,9 C -2,0 C 8,2 km/h (2 Bft)
05.12.2019 09:40 14,7 C -2,0 C 0,6 C 53 % 87 % 1018,1 hPa 0,0 l/m 6,0 km/h (2 Bft) O-SO 112 -3,9 C -2,0 C 16,2 km/h (3 Bft)
05.12.2019 09:38 14,6 C -2,0 C 0,5 C 53 % 87 % 1018,1 hPa 0,0 l/m 5,1 km/h (1 Bft) SO 135 -3,9 C -2,0 C 16,2 km/h (3 Bft)
05.12.2019 09:36 14,7 C -2,0 C 0,7 C 52 % 87 % 1018,1 hPa 0,0 l/m 4,3 km/h (1 Bft) S 180 -3,9 C -2,0 C 11,6 km/h (2 Bft)
05.12.2019 09:34 14,6 C -2,0 C 0,8 C 52 % 87 % 1018,1 hPa 0,0 l/m 4,1 km/h (1 Bft) S-SO 157 -3,9 C -2,0 C 7,5 km/h (2 Bft)
05.12.2019 09:32 14,6 C -2,0 C 0,8 C 52 % 87 % 1018,1 hPa 0,0 l/m 3,9 km/h (1 Bft) SO 135 -3,9 C -2,0 C 7,5 km/h (2 Bft)
05.12.2019 09:30 14,6 C -2,0 C 0,9 C 52 % 87 % 1018,1 hPa 0,0 l/m 3,9 km/h (1 Bft) S 180 -3,9 C -2,0 C 6,8 km/h (2 Bft)
05.12.2019 09:28 14,8 C -2,0 C 0,9 C 52 % 87 % 1018,1 hPa 0,0 l/m 3,9 km/h (1 Bft) S-SO 157 -3,9 C -2,0 C 4,1 km/h (1 Bft)
05.12.2019 09:26 14,8 C -2,0 C 0,9 C 52 % 87 % 1018,1 hPa 0,0 l/m 3,4 km/h (1 Bft) O-NO 67 -3,9 C -2,0 C 6,5 km/h (2 Bft)
05.12.2019 09:24 14,8 C -2,0 C 0,9 C 52 % 87 % 1018,1 hPa 0,0 l/m 3,6 km/h (1 Bft) S 180 -3,9 C -2,0 C 6,5 km/h (2 Bft)
05.12.2019 09:22 14,8 C -2,0 C 0,8 C 52 % 87 % 1018,1 hPa 0,0 l/m 3,9 km/h (1 Bft) S 180 -3,9 C -2,0 C 4,8 km/h (1 Bft)
05.12.2019 09:20 14,6 C -2,0 C 0,8 C 52 % 87 % 1017,9 hPa 0,0 l/m 3,6 km/h (1 Bft) NW 315 -3,9 C -2,0 C 3,9 km/h (1 Bft)
05.12.2019 09:18 14,8 C -2,0 C 0,8 C 52 % 87 % 1017,9 hPa 0,0 l/m 3,1 km/h (1 Bft) S-SO 157 -3,9 C -2,0 C 3,6 km/h (1 Bft)
05.12.2019 09:16 14,6 C -2,0 C 0,8 C 52 % 87 % 1017,9 hPa 0,0 l/m 3,6 km/h (1 Bft) SO 135 -3,9 C -2,0 C 4,6 km/h (1 Bft)
05.12.2019 09:14 14,8 C -2,0 C 0,8 C 52 % 87 % 1017,9 hPa 0,0 l/m 3,9 km/h (1 Bft) O-SO 112 -3,9 C -2,0 C 4,6 km/h (1 Bft)
05.12.2019 09:12 14,8 C -2,0 C 0,8 C 52 % 87 % 1017,9 hPa 0,0 l/m 3,9 km/h (1 Bft) O-SO 112 -3,9 C -2,0 C 5,3 km/h (1 Bft)
05.12.2019 09:10 14,8 C -2,0 C 0,8 C 52 % 87 % 1017,9 hPa 0,0 l/m 4,6 km/h (1 Bft) S 180 -3,9 C -2,0 C 6,0 km/h (2 Bft)
05.12.2019 09:08 14,8 C -2,0 C 0,8 C 52 % 87 % 1017,9 hPa 0,0 l/m 5,1 km/h (1 Bft) S 180 -3,9 C -2,0 C 7,0 km/h (2 Bft)
05.12.2019 09:06 14,8 C -2,0 C 0,7 C 52 % 87 % 1017,9 hPa 0,0 l/m 5,3 km/h (1 Bft) SO 135 -3,9 C -2,0 C 8,9 km/h (2 Bft)
05.12.2019 09:04 14,8 C -2,0 C 0,7 C 52 % 87 % 1017,9 hPa 0,0 l/m 5,3 km/h (1 Bft) O 90 -3,9 C -2,0 C 8,9 km/h (2 Bft)
05.12.2019 09:02 14,8 C -2,1 C 0,7 C 52 % 87 % 1017,9 hPa 0,0 l/m 5,3 km/h (1 Bft) SO 135 -4,0 C -2,1 C 7,2 km/h (2 Bft)
05.12.2019 09:00 14,8 C -2,1 C 0,7 C 52 % 87 % 1017,9 hPa 0,0 l/m 5,1 km/h (1 Bft) O 90 -4,0 C -2,1 C 9,7 km/h (2 Bft)
05.12.2019 08:58 14,8 C -2,0 C 0,7 C 52 % 87 % 1017,9 hPa 0,0 l/m 5,3 km/h (1 Bft) S 180 -3,9 C -2,0 C 9,7 km/h (2 Bft)
05.12.2019 08:56 14,8 C -2,0 C 0,7 C 52 % 87 % 1017,9 hPa 0,0 l/m 4,8 km/h (1 Bft) W-NW 292 -3,9 C -2,0 C 5,8 km/h (2 Bft)
05.12.2019 08:54 14,8 C -2,0 C 0,7 C 52 % 87 % 1017,9 hPa 0,0 l/m 4,3 km/h (1 Bft) S 180 -3,9 C -2,0 C 6,5 km/h (2 Bft)
05.12.2019 08:52 14,8 C -2,0 C 0,7 C 52 % 87 % 1017,9 hPa 0,0 l/m 4,1 km/h (1 Bft) SO 135 -3,9 C -2,0 C 7,5 km/h (2 Bft)
05.12.2019 08:50 14,8 C -2,0 C 0,7 C 52 % 87 % 1017,9 hPa 0,0 l/m 4,1 km/h (1 Bft) S 180 -3,9 C -2,0 C 11,3 km/h (2 Bft)
05.12.2019 08:48 14,8 C -2,0 C 0,7 C 52 % 87 % 1017,9 hPa 0,0 l/m 4,3 km/h (1 Bft) W-SW 247 -3,9 C -2,0 C 11,3 km/h (2 Bft)
05.12.2019 08:46 14,8 C -2,0 C 0,7 C 52 % 87 % 1017,9 hPa 0,0 l/m 3,4 km/h (1 Bft) N 360 -3,9 C -2,0 C 4,8 km/h (1 Bft)
05.12.2019 08:44 14,9 C -2,0 C 0,7 C 52 % 87 % 1017,9 hPa 0,0 l/m 3,4 km/h (1 Bft) S-SO 157 -3,9 C -2,0 C 4,8 km/h (1 Bft)
05.12.2019 08:42 14,8 C -2,0 C 0,7 C 52 % 87 % 1017,9 hPa 0,0 l/m 3,4 km/h (1 Bft) S 180 -3,9 C -2,0 C 5,3 km/h (1 Bft)
05.12.2019 08:40 14,9 C -2,0 C 0,7 C 52 % 87 % 1018,1 hPa 0,0 l/m 3,9 km/h (1 Bft) W-SW 247 -3,9 C -2,0 C 6,0 km/h (2 Bft)
05.12.2019 08:38 14,9 C -1,9 C 0,7 C 52 % 87 % 1018,1 hPa 0,0 l/m 3,6 km/h (1 Bft) S-SO 157 -3,8 C -1,9 C 6,0 km/h (2 Bft)
05.12.2019 08:36 14,9 C -1,9 C 0,7 C 52 % 87 % 1018,1 hPa 0,0 l/m 3,6 km/h (1 Bft) S-SO 157 -3,8 C -1,9 C 4,6 km/h (1 Bft)
05.12.2019 08:34 14,9 C -1,9 C 0,7 C 52 % 87 % 1018,1 hPa 0,0 l/m 5,1 km/h (1 Bft) SW 225 -3,8 C -1,9 C 4,6 km/h (1 Bft)
05.12.2019 08:32 14,9 C -1,9 C 0,7 C 52 % 87 % 1018,1 hPa 0,0 l/m 5,6 km/h (1 Bft) S-SO 157 -3,8 C -1,9 C 7,2 km/h (2 Bft)
05.12.2019 08:30 14,8 C -2,0 C 0,6 C 52 % 87 % 1018,1 hPa 0,0 l/m 5,6 km/h (1 Bft) S-SW 202 -3,9 C -2,0 C 7,2 km/h (2 Bft)
05.12.2019 08:28 14,8 C -2,0 C 0,6 C 51 % 87 % 1018,1 hPa 0,0 l/m 5,8 km/h (2 Bft) S 180 -3,9 C -2,0 C 6,3 km/h (2 Bft)
05.12.2019 08:26 14,8 C -2,0 C 0,5 C 52 % 87 % 1018,1 hPa 0,0 l/m 5,8 km/h (2 Bft) O-SO 112 -3,9 C -2,0 C 11,1 km/h (2 Bft)
05.12.2019 08:24 14,8 C -2,0 C 0,6 C 51 % 87 % 1018,1 hPa 0,0 l/m 5,6 km/h (1 Bft) SO 135 -3,9 C -2,0 C 11,1 km/h (2 Bft)
05.12.2019 08:22 14,8 C -2,0 C 0,5 C 52 % 87 % 1018,1 hPa 0,0 l/m 5,1 km/h (1 Bft) S-SO 157 -3,9 C -2,0 C 7,7 km/h (2 Bft)
05.12.2019 08:20 14,8 C -2,0 C 0,5 C 51 % 87 % 1017,7 hPa 0,0 l/m 5,3 km/h (1 Bft) SW 225 -3,9 C -2,0 C 11,6 km/h (2 Bft)
05.12.2019 08:18 14,8 C -2,0 C 0,5 C 52 % 87 % 1017,7 hPa 0,0 l/m 5,6 km/h (1 Bft) S-SO 157 -3,9 C -2,0 C 11,6 km/h (2 Bft)
05.12.2019 08:16 14,8 C -2,0 C 0,6 C 52 % 87 % 1017,7 hPa 0,0 l/m 5,6 km/h (1 Bft) S-SW 202 -3,9 C -2,0 C 6,5 km/h (2 Bft)
05.12.2019 08:14 14,8 C -2,0 C 0,6 C 51 % 87 % 1017,7 hPa 0,0 l/m 6,0 km/h (2 Bft) S-SO 157 -3,9 C -2,0 C 6,5 km/h (2 Bft)
05.12.2019 08:12 14,8 C -2,0 C 0,5 C 51 % 87 % 1017,7 hPa 0,0 l/m 6,5 km/h (2 Bft) S-SO 157 -3,9 C -2,1 C 5,8 km/h (2 Bft)
05.12.2019 08:10 15,0 C -2,0 C 0,5 C 51 % 87 % 1017,7 hPa 0,0 l/m 6,8 km/h (2 Bft) S 180 -3,9 C -2,4 C 7,2 km/h (2 Bft)
05.12.2019 08:08 15,0 C -2,0 C 0,2 C 51 % 87 % 1017,7 hPa 0,0 l/m 6,8 km/h (2 Bft) S-SO 157 -3,9 C -2,4 C 10,6 km/h (2 Bft)
05.12.2019 08:06 15,0 C -2,0 C 0,3 C 51 % 87 % 1017,7 hPa 0,0 l/m 5,8 km/h (2 Bft) O 90 -3,9 C -2,0 C 10,6 km/h (2 Bft)
05.12.2019 08:04 15,0 C -1,9 C 0,5 C 51 % 87 % 1017,7 hPa 0,0 l/m 5,1 km/h (1 Bft) S-SO 157 -3,8 C -1,9 C 10,1 km/h (2 Bft)
05.12.2019 08:02 15,0 C -2,0 C 0,6 C 51 % 87 % 1017,7 hPa 0,0 l/m 5,6 km/h (1 Bft) S-SO 157 -3,9 C -2,0 C 10,1 km/h (2 Bft)
05.12.2019 08:00 15,0 C -1,9 C 0,6 C 51 % 87 % 1017,7 hPa 0,0 l/m 5,1 km/h (1 Bft) O-NO 67 -3,8 C -1,9 C 8,9 km/h (2 Bft)
05.12.2019 07:58 15,0 C -1,9 C 0,6 C 51 % 87 % 1017,7 hPa 0,0 l/m 4,3 km/h (1 Bft) S-SW 202 -3,8 C -1,9 C 5,8 km/h (2 Bft)
05.12.2019 07:56 15,0 C -2,0 C 0,6 C 51 % 87 % 1017,7 hPa 0,0 l/m 5,1 km/h (1 Bft) S 180 -3,9 C -2,0 C 5,8 km/h (2 Bft)
05.12.2019 07:54 15,0 C -2,0 C 0,5 C 51 % 87 % 1017,7 hPa 0,0 l/m 5,3 km/h (1 Bft) S-SO 157 -3,9 C -2,0 C 14,0 km/h (3 Bft)
05.12.2019 07:52 15,0 C -2,0 C 0,3 C 51 % 87 % 1017,7 hPa 0,0 l/m 5,3 km/h (1 Bft) S 180 -3,9 C -2,0 C 14,0 km/h (3 Bft)
05.12.2019 07:50 15,0 C -2,0 C 0,6 C 51 % 87 % 1017,7 hPa 0,0 l/m 3,9 km/h (1 Bft) S 180 -3,9 C -2,0 C 5,3 km/h (1 Bft)
05.12.2019 07:48 14,9 C -2,0 C 0,6 C 51 % 87 % 1017,7 hPa 0,0 l/m 4,3 km/h (1 Bft) S-SO 157 -3,9 C -2,0 C 9,4 km/h (2 Bft)
05.12.2019 07:46 14,9 C -2,0 C 0,5 C 51 % 87 % 1017,7 hPa 0,0 l/m 4,3 km/h (1 Bft) S 180 -3,9 C -2,0 C 9,4 km/h (2 Bft)
05.12.2019 07:44 14,9 C -1,9 C 0,6 C 51 % 87 % 1017,7 hPa 0,0 l/m 3,9 km/h (1 Bft) SO 135 -3,8 C -1,9 C 4,3 km/h (1 Bft)
05.12.2019 07:42 14,9 C -1,9 C 0,6 C 51 % 87 % 1017,7 hPa 0,0 l/m 4,3 km/h (1 Bft) S-SO 157 -3,8 C -1,9 C 3,1 km/h (1 Bft)
05.12.2019 07:40 15,1 C -2,0 C 0,6 C 51 % 87 % 1017,6 hPa 0,0 l/m 4,3 km/h (1 Bft) S-SO 157 -3,9 C -2,0 C 6,5 km/h (2 Bft)
05.12.2019 07:38 15,1 C -2,0 C 0,5 C 51 % 87 % 1017,6 hPa 0,0 l/m 5,1 km/h (1 Bft) S 180 -3,9 C -2,0 C 6,5 km/h (2 Bft)
05.12.2019 07:36 15,1 C -2,0 C 0,5 C 51 % 87 % 1017,6 hPa 0,0 l/m 4,8 km/h (1 Bft) S-SO 157 -3,9 C -2,0 C 15,4 km/h (3 Bft)
05.12.2019 07:34 15,1 C -2,0 C 0,6 C 51 % 87 % 1017,6 hPa 0,0 l/m 4,3 km/h (1 Bft) NO 45 -3,9 C -2,0 C 8,4 km/h (2 Bft)
05.12.2019 07:32 15,1 C -2,0 C 0,6 C 51 % 87 % 1017,6 hPa 0,0 l/m 3,6 km/h (1 Bft) S 180 -3,9 C -2,0 C 6,5 km/h (2 Bft)
05.12.2019 07:30 15,1 C -1,9 C 0,5 C 51 % 87 % 1017,6 hPa 0,0 l/m 3,6 km/h (1 Bft) N 360 -3,8 C -1,9 C 7,5 km/h (2 Bft)
05.12.2019 07:28 15,1 C -1,9 C 0,6 C 51 % 87 % 1017,6 hPa 0,0 l/m 4,3 km/h (1 Bft) SO 135 -3,8 C -1,9 C 7,5 km/h (2 Bft)
05.12.2019 07:26 15,1 C -1,9 C 0,7 C 51 % 87 % 1017,6 hPa 0,0 l/m 3,9 km/h (1 Bft) S 180 -3,8 C -1,9 C 3,6 km/h (1 Bft)
05.12.2019 07:24 15,1 C -1,9 C 0,6 C 50 % 87 % 1017,6 hPa 0,0 l/m 4,8 km/h (1 Bft) O-SO 112 -3,8 C -1,9 C 5,6 km/h (1 Bft)
05.12.2019 07:22 15,1 C -1,9 C 0,7 C 50 % 87 % 1017,6 hPa 0,0 l/m 5,1 km/h (1 Bft) SO 135 -3,8 C -1,9 C 5,6 km/h (1 Bft)
05.12.2019 07:20 15,1 C -1,9 C 0,7 C 50 % 87 % 1017,6 hPa 0,0 l/m 4,6 km/h (1 Bft) N-NO 22 -3,8 C -1,9 C 5,1 km/h (1 Bft)
05.12.2019 07:18 15,2 C -1,9 C 0,7 C 50 % 87 % 1017,6 hPa 0,0 l/m 5,3 km/h (1 Bft) S-SO 157 -3,8 C -1,9 C 5,1 km/h (1 Bft)
05.12.2019 07:16 15,2 C -1,9 C 0,7 C 50 % 87 % 1017,6 hPa 0,0 l/m 5,6 km/h (1 Bft) S-SO 157 -3,8 C -1,9 C 8,0 km/h (2 Bft)
05.12.2019 07:14 15,2 C -1,9 C 0,7 C 50 % 87 % 1017,6 hPa 0,0 l/m 5,6 km/h (1 Bft) O-SO 112 -3,8 C -1,9 C 8,0 km/h (2 Bft)
05.12.2019 07:12 15,2 C -1,9 C 0,6 C 50 % 87 % 1017,6 hPa 0,0 l/m 5,6 km/h (1 Bft) S 180 -3,8 C -1,9 C 7,7 km/h (2 Bft)
05.12.2019 07:10 15,2 C -1,9 C 0,6 C 50 % 87 % 1017,6 hPa 0,0 l/m 6,8 km/h (2 Bft) O-SO 112 -3,8 C -2,3 C 8,0 km/h (2 Bft)
05.12.2019 07:08 15,2 C -1,9 C 0,7 C 50 % 87 % 1017,6 hPa 0,0 l/m 6,5 km/h (2 Bft) S-SO 157 -3,8 C -2,0 C 8,0 km/h (2 Bft)
05.12.2019 07:06 15,2 C -1,9 C 0,7 C 50 % 87 % 1017,6 hPa 0,0 l/m 6,5 km/h (2 Bft) SO 135 -3,8 C -2,0 C 15,0 km/h (3 Bft)
05.12.2019 07:04 15,1 C -1,9 C 0,7 C 50 % 87 % 1017,6 hPa 0,0 l/m 6,3 km/h (2 Bft) S-SO 157 -3,8 C -1,9 C 6,8 km/h (2 Bft)
05.12.2019 07:02 15,1 C -1,9 C 0,7 C 50 % 87 % 1017,6 hPa 0,0 l/m 6,3 km/h (2 Bft) S-SO 157 -3,8 C -1,9 C 14,7 km/h (3 Bft)
05.12.2019 07:00 15,1 C -1,9 C 0,7 C 50 % 87 % 1017,5 hPa 0,0 l/m 5,6 km/h (1 Bft) S 180 -3,8 C -1,9 C 14,7 km/h (3 Bft)
05.12.2019 06:58 15,1 C -1,9 C 0,7 C 50 % 87 % 1017,5 hPa 0,0 l/m 4,8 km/h (1 Bft) SO 135 -3,8 C -1,9 C 7,7 km/h (2 Bft)
05.12.2019 06:56 15,1 C -1,9 C 0,7 C 50 % 87 % 1017,5 hPa 0,0 l/m 4,3 km/h (1 Bft) S-SO 157 -3,8 C -1,9 C 7,7 km/h (2 Bft)
05.12.2019 06:54 15,3 C -1,8 C 0,7 C 49 % 87 % 1017,5 hPa 0,0 l/m 4,3 km/h (1 Bft) S 180 -3,7 C -1,8 C 6,8 km/h (2 Bft)
05.12.2019 06:52 15,3 C -1,8 C 0,7 C 49 % 87 % 1017,5 hPa 0,0 l/m 4,8 km/h (1 Bft) O-SO 112 -3,7 C -1,8 C 6,8 km/h (2 Bft)
05.12.2019 06:50 15,3 C -1,8 C 0,7 C 49 % 87 % 1017,5 hPa 0,0 l/m 3,9 km/h (1 Bft) S-SO 157 -3,7 C -1,8 C 6,5 km/h (2 Bft)
05.12.2019 06:48 15,2 C -1,8 C 0,7 C 49 % 87 % 1017,5 hPa 0,0 l/m 3,9 km/h (1 Bft) S-SO 157 -3,7 C -1,8 C 6,5 km/h (2 Bft)
05.12.2019 06:46 15,2 C -1,8 C 0,7 C 49 % 87 % 1017,5 hPa 0,0 l/m 3,4 km/h (1 Bft) SO 135 -3,7 C -1,8 C 5,6 km/h (1 Bft)
05.12.2019 06:44 15,2 C -1,8 C 0,7 C 49 % 87 % 1017,5 hPa 0,0 l/m 2,7 km/h (1 Bft) S-SO 157 -3,7 C -1,8 C 5,6 km/h (1 Bft)
05.12.2019 06:42 15,4 C -1,8 C 0,7 C 49 % 87 % 1017,5 hPa 0,0 l/m 2,7 km/h (1 Bft) O-SO 112 -3,7 C -1,8 C 5,3 km/h (1 Bft)
05.12.2019 06:40 15,4 C -1,9 C 0,7 C 49 % 87 % 1017,4 hPa 0,0 l/m 2,9 km/h (1 Bft) O-SO 112 -3,8 C -1,9 C 3,4 km/h (1 Bft)
05.12.2019 06:38 15,4 C -1,9 C 0,7 C 49 % 87 % 1017,4 hPa 0,0 l/m 2,9 km/h (1 Bft) S-SW 202 -3,8 C -1,9 C 3,4 km/h (1 Bft)
05.12.2019 06:36 15,4 C -1,9 C 0,7 C 50 % 87 % 1017,4 hPa 0,0 l/m 2,9 km/h (1 Bft) S-SO 157 -3,8 C -1,9 C 2,9 km/h (1 Bft)
05.12.2019 06:34 15,3 C -1,9 C 0,7 C 50 % 87 % 1017,4 hPa 0,0 l/m 3,6 km/h (1 Bft) S-SO 157 -3,8 C -1,9 C 8,2 km/h (2 Bft)
05.12.2019 06:32 15,4 C -1,9 C 0,6 C 50 % 87 % 1017,4 hPa 0,0 l/m 4,1 km/h (1 Bft) S-SO 157 -3,8 C -1,9 C 8,2 km/h (2 Bft)
05.12.2019 06:30 15,4 C -1,9 C 0,7 C 50 % 87 % 1017,4 hPa 0,0 l/m 3,9 km/h (1 Bft) SO 135 -3,8 C -1,9 C 7,5 km/h (2 Bft)
05.12.2019 06:28 15,3 C -1,9 C 0,6 C 50 % 87 % 1017,4 hPa 0,0 l/m 4,1 km/h (1 Bft) S-SO 157 -3,8 C -1,9 C 3,9 km/h (1 Bft)
05.12.2019 06:26 15,3 C -1,9 C 0,7 C 50 % 87 % 1017,4 hPa 0,0 l/m 4,1 km/h (1 Bft) O-NO 67 -3,8 C -1,9 C 3,1 km/h (1 Bft)
05.12.2019 06:24 15,3 C -1,9 C 0,6 C 50 % 87 % 1017,4 hPa 0,0 l/m 4,1 km/h (1 Bft) S-SO 157 -3,8 C -1,9 C 6,8 km/h (2 Bft)
05.12.2019 06:22 15,5 C -1,9 C 0,7 C 50 % 87 % 1017,4 hPa 0,0 l/m 3,4 km/h (1 Bft) SO 135 -3,8 C -1,9 C 6,8 km/h (2 Bft)
05.12.2019 06:20 15,5 C -1,9 C 0,7 C 50 % 87 % 1017,4 hPa 0,0 l/m 3,4 km/h (1 Bft) S-SO 157 -3,8 C -1,9 C 7,2 km/h (2 Bft)
05.12.2019 06:18 15,5 C -1,9 C 0,6 C 50 % 87 % 1017,4 hPa 0,0 l/m 3,6 km/h (1 Bft) N 360 -3,8 C -1,9 C 7,2 km/h (2 Bft)
05.12.2019 06:16 15,5 C -1,9 C 0,6 C 50 % 87 % 1017,4 hPa 0,0 l/m 4,3 km/h (1 Bft) SO 135 -3,8 C -1,9 C 7,2 km/h (2 Bft)
05.12.2019 06:14 15,5 C -1,9 C 0,7 C 50 % 87 % 1017,4 hPa 0,0 l/m 3,9 km/h (1 Bft) S-SO 157 -3,8 C -1,9 C 3,6 km/h (1 Bft)
05.12.2019 06:12 15,5 C -1,9 C 0,6 C 50 % 87 % 1017,4 hPa 0,0 l/m 4,1 km/h (1 Bft) SO 135 -3,8 C -1,9 C 6,8 km/h (2 Bft)
05.12.2019 06:10 15,5 C -1,8 C 0,7 C 50 % 87 % 1017,4 hPa 0,0 l/m 4,6 km/h (1 Bft) O 90 -3,7 C -1,8 C 6,8 km/h (2 Bft)
05.12.2019 06:08 15,4 C -1,8 C 0,7 C 50 % 87 % 1017,4 hPa 0,0 l/m 4,6 km/h (1 Bft) O 90 -3,7 C -1,8 C 6,8 km/h (2 Bft)
05.12.2019 06:06 15,4 C -1,8 C 0,7 C 49 % 87 % 1017,4 hPa 0,0 l/m 4,6 km/h (1 Bft) O 90 -3,7 C -1,8 C 6,8 km/h (2 Bft)
05.12.2019 06:04 15,4 C -1,8 C 0,7 C 49 % 87 % 1017,4 hPa 0,0 l/m 4,6 km/h (1 Bft) O 90 -3,7 C -1,8 C 6,8 km/h (2 Bft)
05.12.2019 06:02 15,4 C -1,8 C 0,6 C 49 % 87 % 1017,4 hPa 0,0 l/m 4,6 km/h (1 Bft) O 90 -3,7 C -1,8 C 6,8 km/h (2 Bft)
05.12.2019 06:00 15,6 C -1,8 C 0,6 C 49 % 87 % 1017,2 hPa 0,0 l/m 4,6 km/h (1 Bft) S-SO 157 -3,7 C -1,8 C 9,7 km/h (2 Bft)
05.12.2019 05:58 15,6 C -1,7 C 0,7 C 49 % 87 % 1017,2 hPa 0,0 l/m 4,1 km/h (1 Bft) SO 135 -3,6 C -1,7 C 9,7 km/h (2 Bft)
05.12.2019 05:56 15,6 C -1,9 C 0,7 C 49 % 87 % 1017,2 hPa 0,0 l/m 4,1 km/h (1 Bft) S 180 -3,8 C -1,9 C 4,1 km/h (1 Bft)
05.12.2019 05:54 15,6 C -1,9 C 0,7 C 49 % 87 % 1017,2 hPa 0,0 l/m 4,1 km/h (1 Bft) S 180 -3,8 C -1,9 C 6,5 km/h (2 Bft)
05.12.2019 05:52 15,6 C -1,9 C 0,7 C 49 % 87 % 1017,2 hPa 0,0 l/m 3,4 km/h (1 Bft) N-NO 22 -3,8 C -1,9 C 6,5 km/h (2 Bft)
05.12.2019 05:50 15,6 C -1,9 C 0,7 C 48 % 87 % 1017,2 hPa 0,0 l/m 3,4 km/h (1 Bft) S-SO 157 -3,8 C -1,9 C 5,6 km/h (1 Bft)
05.12.2019 05:48 15,6 C -1,8 C 0,7 C 48 % 87 % 1017,2 hPa 0,0 l/m 3,4 km/h (1 Bft) S 180 -3,7 C -1,8 C 5,3 km/h (1 Bft)
05.12.2019 05:46 15,6 C -1,8 C 0,6 C 48 % 87 % 1017,2 hPa 0,0 l/m 3,6 km/h (1 Bft) S 180 -3,7 C -1,8 C 10,9 km/h (2 Bft)
05.12.2019 05:44 15,6 C -1,8 C 0,6 C 48 % 87 % 1017,2 hPa 0,0 l/m 2,9 km/h (1 Bft) S 180 -3,7 C -1,8 C 10,9 km/h (2 Bft)
05.12.2019 05:42 15,6 C -1,8 C 0,6 C 48 % 87 % 1017,2 hPa 0,0 l/m 3,6 km/h (1 Bft) O-SO 112 -3,7 C -1,8 C 4,3 km/h (1 Bft)
05.12.2019 05:40 15,6 C -1,8 C 0,6 C 48 % 87 % 1017,4 hPa 0,0 l/m 4,3 km/h (1 Bft) O 90 -3,7 C -1,8 C 4,6 km/h (1 Bft)
05.12.2019 05:38 15,7 C -1,8 C 0,6 C 47 % 87 % 1017,4 hPa 0,0 l/m 4,6 km/h (1 Bft) S 180 -3,7 C -1,8 C 6,8 km/h (2 Bft)
05.12.2019 05:36 15,7 C -1,8 C 0,6 C 47 % 87 % 1017,4 hPa 0,0 l/m 4,8 km/h (1 Bft) SW 225 -3,7 C -1,8 C 6,8 km/h (2 Bft)
05.12.2019 05:34 15,6 C -1,8 C 0,6 C 47 % 87 % 1017,4 hPa 0,0 l/m 4,6 km/h (1 Bft) S-SO 157 -3,7 C -1,8 C 8,2 km/h (2 Bft)
05.12.2019 05:32 15,8 C -1,8 C 0,6 C 47 % 87 % 1017,4 hPa 0,0 l/m 5,3 km/h (1 Bft) SO 135 -3,7 C -1,8 C 9,7 km/h (2 Bft)
05.12.2019 05:30 15,8 C -1,8 C 0,6 C 47 % 87 % 1017,4 hPa 0,0 l/m 4,6 km/h (1 Bft) SO 135 -3,7 C -1,8 C 11,6 km/h (2 Bft)
05.12.2019 05:28 15,9 C -1,9 C 0,6 C 47 % 87 % 1017,4 hPa 0,0 l/m 4,1 km/h (1 Bft) SW 225 -3,8 C -1,9 C 11,6 km/h (2 Bft)
05.12.2019 05:26 15,8 C -1,8 C 0,6 C 48 % 87 % 1017,4 hPa 0,0 l/m 3,6 km/h (1 Bft) S-SO 157 -3,7 C -1,8 C 6,8 km/h (2 Bft)
05.12.2019 05:24 16,0 C -1,9 C 0,5 C 49 % 87 % 1017,4 hPa 0,0 l/m 3,9 km/h (1 Bft) O-NO 67 -3,8 C -1,9 C 12,3 km/h (3 Bft)
05.12.2019 05:22 16,0 C -1,9 C 0,5 C 50 % 87 % 1017,4 hPa 0,0 l/m 3,6 km/h (1 Bft) O-SO 112 -3,8 C -1,9 C 12,3 km/h (3 Bft)
05.12.2019 05:20 16,0 C -1,8 C 0,5 C 51 % 87 % 1017,3 hPa 0,0 l/m 3,1 km/h (1 Bft) SO 135 -3,7 C -1,8 C 3,1 km/h (1 Bft)
05.12.2019 05:18 16,0 C -1,8 C 0,5 C 51 % 87 % 1017,3 hPa 0,0 l/m 3,1 km/h (1 Bft) O 90 -3,7 C -1,8 C 9,2 km/h (2 Bft)
05.12.2019 05:16 15,9 C -1,8 C 0,6 C 51 % 87 % 1017,3 hPa 0,0 l/m 3,1 km/h (1 Bft) SO 135 -3,7 C -1,8 C 9,2 km/h (2 Bft)
05.12.2019 05:14 15,9 C -1,8 C 0,6 C 51 % 87 % 1017,3 hPa 0,0 l/m 2,4 km/h (1 Bft) SO 135 -3,7 C -1,8 C 5,8 km/h (2 Bft)
05.12.2019 05:12 15,9 C -1,8 C 0,6 C 51 % 87 % 1017,3 hPa 0,0 l/m 2,7 km/h (1 Bft) SO 135 -3,7 C -1,8 C 5,6 km/h (1 Bft)
05.12.2019 05:10 15,9 C -1,8 C 0,6 C 51 % 87 % 1017,3 hPa 0,0 l/m 2,9 km/h (1 Bft) S 180 -3,7 C -1,8 C 5,6 km/h (1 Bft)
05.12.2019 05:08 16,1 C -1,8 C 0,7 C 51 % 87 % 1017,3 hPa 0,0 l/m 2,2 km/h (1 Bft) S-SW 202 -3,7 C -1,8 C 7,0 km/h (2 Bft)
05.12.2019 05:06 16,1 C -1,8 C 0,6 C 51 % 87 % 1017,3 hPa 0,0 l/m 2,2 km/h (1 Bft) O-SO 112 -3,7 C -1,8 C 7,0 km/h (2 Bft)
05.12.2019 05:04 16,1 C -1,8 C 0,6 C 51 % 87 % 1017,3 hPa 0,0 l/m 1,9 km/h (1 Bft) S 180 -3,7 C -1,8 C 4,3 km/h (1 Bft)
05.12.2019 05:01 16,1 C -1,8 C 0,7 C 51 % 87 % 1017,6 hPa 0,0 l/m 1,9 km/h (1 Bft) S 180 -3,7 C -1,8 C 0,0 km/h (0 Bft)
05.12.2019 05:00 16,1 C -1,8 C 0,7 C 51 % 87 % 1017,6 hPa 0,0 l/m 1,9 km/h (1 Bft) S 180 -3,7 C -1,8 C 0,0 km/h (0 Bft)
05.12.2019 04:58 16,1 C -1,8 C 0,7 C 51 % 87 % 1017,6 hPa 0,0 l/m 2,2 km/h (1 Bft) S-SO 157 -3,7 C -1,8 C 0,0 km/h (0 Bft)
05.12.2019 04:56 16,1 C -1,8 C 0,7 C 51 % 87 % 1017,6 hPa 0,0 l/m 2,7 km/h (1 Bft) SO 135 -3,7 C -1,8 C 3,1 km/h (1 Bft)
05.12.2019 04:54 16,1 C -1,8 C 0,7 C 51 % 87 % 1017,6 hPa 0,0 l/m 2,9 km/h (1 Bft) SO 135 -3,7 C -1,8 C 3,4 km/h (1 Bft)
05.12.2019 04:52 16,2 C -1,8 C 0,7 C 51 % 87 % 1017,6 hPa 0,0 l/m 2,9 km/h (1 Bft) S-SO 157 -3,7 C -1,8 C 3,9 km/h (1 Bft)
05.12.2019 04:50 16,2 C -1,8 C 0,7 C 51 % 87 % 1017,6 hPa 0,0 l/m 3,1 km/h (1 Bft) S 180 -3,7 C -1,8 C 5,6 km/h (1 Bft)
05.12.2019 04:48 16,2 C -1,8 C 0,6 C 51 % 87 % 1017,6 hPa 0,0 l/m 3,6 km/h (1 Bft) SO 135 -3,7 C -1,8 C 6,8 km/h (2 Bft)
05.12.2019 04:46 16,2 C -1,8 C 0,6 C 51 % 87 % 1017,6 hPa 0,0 l/m 4,1 km/h (1 Bft) SO 135 -3,7 C -1,8 C 6,8 km/h (2 Bft)
05.12.2019 04:44 16,2 C -1,8 C 0,6 C 51 % 87 % 1017,6 hPa 0,0 l/m 4,8 km/h (1 Bft) O-NO 67 -3,7 C -1,8 C 5,1 km/h (1 Bft)
05.12.2019 04:42 16,2 C -1,8 C 0,6 C 51 % 87 % 1017,6 hPa 0,0 l/m 5,8 km/h (2 Bft) S-SO 157 -3,7 C -1,8 C 5,1 km/h (1 Bft)
05.12.2019 04:40 16,2 C -1,8 C 0,6 C 51 % 87 % 1017,8 hPa 0,0 l/m 6,0 km/h (2 Bft) SO 135 -3,7 C -1,8 C 13,0 km/h (3 Bft)
05.12.2019 04:38 16,3 C -1,8 C 0,6 C 51 % 87 % 1017,8 hPa 0,0 l/m 6,5 km/h (2 Bft) S 180 -3,7 C -1,9 C 13,0 km/h (3 Bft)
05.12.2019 04:36 16,3 C -1,8 C 0,6 C 51 % 87 % 1017,8 hPa 0,0 l/m 6,0 km/h (2 Bft) SO 135 -3,7 C -1,8 C 11,3 km/h (2 Bft)
05.12.2019 04:34 16,2 C -1,6 C 0,6 C 51 % 87 % 1017,8 hPa 0,0 l/m 5,8 km/h (2 Bft) SO 135 -3,5 C -1,6 C 9,7 km/h (2 Bft)
05.12.2019 04:32 16,3 C -1,6 C 0,6 C 51 % 87 % 1017,8 hPa 0,0 l/m 5,6 km/h (1 Bft) S 180 -3,5 C -1,6 C 9,4 km/h (2 Bft)
05.12.2019 04:30 16,4 C -1,6 C 0,7 C 51 % 87 % 1017,8 hPa 0,0 l/m 4,1 km/h (1 Bft) S-SO 157 -3,5 C -1,6 C 8,9 km/h (2 Bft)
05.12.2019 04:28 16,4 C -1,8 C 0,6 C 51 % 87 % 1017,8 hPa 0,0 l/m 3,6 km/h (1 Bft) S 180 -3,7 C -1,8 C 6,3 km/h (2 Bft)
05.12.2019 04:26 16,4 C -1,6 C 0,6 C 51 % 87 % 1017,8 hPa 0,0 l/m 2,7 km/h (1 Bft) S-SO 157 -3,5 C -1,6 C 5,8 km/h (2 Bft)
05.12.2019 04:24 16,4 C -1,6 C 0,7 C 51 % 87 % 1017,8 hPa 0,0 l/m 2,4 km/h (1 Bft) SO 135 -3,5 C -1,6 C 10,4 km/h (2 Bft)
05.12.2019 04:22 16,4 C -1,6 C 0,7 C 51 % 87 % 1017,8 hPa 0,0 l/m 2,2 km/h (1 Bft) O-SO 112 -3,5 C -1,6 C 10,4 km/h (2 Bft)
05.12.2019 04:20 16,4 C -1,6 C 0,7 C 50 % 87 % 1017,6 hPa 0,0 l/m 2,2 km/h (1 Bft) S 180 -3,5 C -1,6 C 4,3 km/h (1 Bft)
05.12.2019 04:18 16,4 C -1,6 C 0,7 C 50 % 87 % 1017,6 hPa 0,0 l/m 2,9 km/h (1 Bft) S 180 -3,5 C -1,6 C 4,3 km/h (1 Bft)
05.12.2019 04:16 16,4 C -1,6 C 0,6 C 50 % 87 % 1017,6 hPa 0,0 l/m 3,9 km/h (1 Bft) S-SO 157 -3,5 C -1,6 C 5,3 km/h (1 Bft)
05.12.2019 04:14 16,4 C -1,6 C 0,6 C 50 % 87 % 1017,6 hPa 0,0 l/m 4,1 km/h (1 Bft) S-SO 157 -3,5 C -1,6 C 7,2 km/h (2 Bft)
05.12.2019 04:12 16,5 C -1,6 C 0,6 C 50 % 87 % 1017,6 hPa 0,0 l/m 3,9 km/h (1 Bft) SO 135 -3,5 C -1,6 C 7,2 km/h (2 Bft)
05.12.2019 04:10 16,5 C -1,6 C 0,6 C 50 % 87 % 1017,6 hPa 0,0 l/m 4,3 km/h (1 Bft) S-SO 157 -3,5 C -1,6 C 9,4 km/h (2 Bft)
05.12.2019 04:08 16,5 C -1,6 C 0,6 C 50 % 87 % 1017,6 hPa 0,0 l/m 4,1 km/h (1 Bft) S-SO 157 -3,5 C -1,6 C 9,4 km/h (2 Bft)
05.12.2019 04:06 16,5 C -1,6 C 0,6 C 50 % 87 % 1017,6 hPa 0,0 l/m 3,1 km/h (1 Bft) O 90 -3,5 C -1,6 C 8,4 km/h (2 Bft)
05.12.2019 04:04 16,5 C -1,6 C 0,6 C 50 % 87 % 1017,6 hPa 0,0 l/m 2,9 km/h (1 Bft) SW 225 -3,5 C -1,6 C 6,0 km/h (2 Bft)
05.12.2019 04:02 16,6 C -1,6 C 0,5 C 50 % 87 % 1017,6 hPa 0,0 l/m 2,9 km/h (1 Bft) S-SO 157 -3,5 C -1,6 C 6,0 km/h (2 Bft)
05.12.2019 04:00 16,6 C -1,6 C 0,5 C 50 % 87 % 1017,4 hPa 0,0 l/m 2,9 km/h (1 Bft) SO 135 -3,5 C -1,6 C 3,4 km/h (1 Bft)
05.12.2019 03:58 16,6 C -1,6 C 0,6 C 50 % 87 % 1017,4 hPa 0,0 l/m 2,9 km/h (1 Bft) S 180 -3,5 C -1,6 C 3,1 km/h (1 Bft)
05.12.2019 03:56 16,6 C -1,6 C 0,6 C 50 % 87 % 1017,4 hPa 0,0 l/m 3,4 km/h (1 Bft) SW 225 -3,5 C -1,6 C 6,5 km/h (2 Bft)
05.12.2019 03:54 16,6 C -1,6 C 0,6 C 50 % 87 % 1017,4 hPa 0,0 l/m 4,3 km/h (1 Bft) S-SO 157 -3,5 C -1,6 C 6,5 km/h (2 Bft)
05.12.2019 03:52 16,6 C -1,6 C 0,6 C 50 % 87 % 1017,4 hPa 0,0 l/m 4,3 km/h (1 Bft) S-SO 157 -3,5 C -1,6 C 5,6 km/h (1 Bft)
05.12.2019 03:50 16,7 C -1,6 C 0,6 C 50 % 87 % 1017,4 hPa 0,0 l/m 4,6 km/h (1 Bft) SO 135 -3,5 C -1,6 C 7,2 km/h (2 Bft)
05.12.2019 03:48 16,7 C -1,6 C 0,6 C 50 % 87 % 1017,4 hPa 0,0 l/m 4,6 km/h (1 Bft) S 180 -3,5 C -1,6 C 7,2 km/h (2 Bft)
05.12.2019 03:46 16,7 C -1,6 C 0,6 C 50 % 87 % 1017,4 hPa 0,0 l/m 4,6 km/h (1 Bft) S-SO 157 -3,5 C -1,6 C 9,7 km/h (2 Bft)
05.12.2019 03:44 16,7 C -1,6 C 0,6 C 50 % 87 % 1017,4 hPa 0,0 l/m 4,3 km/h (1 Bft) S-SO 157 -3,5 C -1,6 C 9,7 km/h (2 Bft)
05.12.2019 03:42 16,7 C -1,6 C 0,6 C 50 % 86 % 1017,4 hPa 0,0 l/m 4,3 km/h (1 Bft) S 180 -3,6 C -1,6 C 5,8 km/h (2 Bft)
05.12.2019 03:40 16,7 C -1,6 C 0,6 C 50 % 86 % 1017,6 hPa 0,0 l/m 4,3 km/h (1 Bft) S-SO 157 -3,6 C -1,6 C 7,7 km/h (2 Bft)
05.12.2019 03:38 16,8 C -1,6 C 0,6 C 50 % 86 % 1017,6 hPa 0,0 l/m 4,3 km/h (1 Bft) S 180 -3,6 C -1,6 C 7,7 km/h (2 Bft)
05.12.2019 03:36 16,8 C -1,6 C 0,6 C 50 % 86 % 1017,6 hPa 0,0 l/m 4,8 km/h (1 Bft) SO 135 -3,6 C -1,6 C 6,8 km/h (2 Bft)
05.12.2019 03:34 16,8 C -1,6 C 0,5 C 50 % 86 % 1017,6 hPa 0,0 l/m 5,1 km/h (1 Bft) S-SO 157 -3,6 C -1,6 C 5,6 km/h (1 Bft)
05.12.2019 03:32 16,8 C -1,6 C 0,5 C 50 % 86 % 1017,6 hPa 0,0 l/m 6,0 km/h (2 Bft) S-SO 157 -3,6 C -1,6 C 7,2 km/h (2 Bft)
05.12.2019 03:30 16,8 C -1,6 C 0,5 C 50 % 86 % 1017,6 hPa 0,0 l/m 6,3 km/h (2 Bft) SO 135 -3,6 C -1,6 C 7,2 km/h (2 Bft)
05.12.2019 03:28 16,8 C -1,6 C 0,5 C 50 % 86 % 1017,6 hPa 0,0 l/m 6,3 km/h (2 Bft) S-SO 157 -3,6 C -1,6 C 5,6 km/h (1 Bft)
05.12.2019 03:26 16,8 C -1,6 C 0,5 C 50 % 86 % 1017,6 hPa 0,0 l/m 5,3 km/h (1 Bft) S-SO 157 -3,6 C -1,6 C 7,2 km/h (2 Bft)
05.12.2019 03:24 16,8 C -1,6 C 0,5 C 50 % 86 % 1017,6 hPa 0,0 l/m 5,3 km/h (1 Bft) SO 135 -3,6 C -1,6 C 11,8 km/h (2 Bft)
05.12.2019 03:22 16,9 C -1,6 C 0,3 C 50 % 86 % 1017,6 hPa 0,0 l/m 5,1 km/h (1 Bft) S-SO 157 -3,6 C -1,6 C 11,8 km/h (2 Bft)
05.12.2019 03:20 16,9 C -1,8 C 0,3 C 50 % 86 % 1017,4 hPa 0,0 l/m 4,8 km/h (1 Bft) S-SO 157 -3,8 C -1,8 C 7,0 km/h (2 Bft)
05.12.2019 03:18 16,9 C -1,8 C 0,3 C 50 % 86 % 1017,4 hPa 0,0 l/m 4,6 km/h (1 Bft) SO 135 -3,8 C -1,8 C 7,0 km/h (2 Bft)
05.12.2019 03:16 16,9 C -1,8 C 0,3 C 50 % 86 % 1017,4 hPa 0,0 l/m 4,8 km/h (1 Bft) S 180 -3,8 C -1,8 C 7,2 km/h (2 Bft)
05.12.2019 03:14 17,0 C -1,8 C 0,2 C 50 % 86 % 1017,4 hPa 0,0 l/m 5,1 km/h (1 Bft) S 180 -3,8 C -1,8 C 7,2 km/h (2 Bft)
05.12.2019 03:12 17,0 C -1,8 C 0,3 C 50 % 86 % 1017,4 hPa 0,0 l/m 4,3 km/h (1 Bft) S 180 -3,8 C -1,8 C 5,6 km/h (1 Bft)
05.12.2019 03:10 17,0 C -1,8 C 0,3 C 50 % 86 % 1017,4 hPa 0,0 l/m 4,1 km/h (1 Bft) SO 135 -3,8 C -1,8 C 4,1 km/h (1 Bft)
05.12.2019 03:08 17,0 C -1,8 C 0,3 C 50 % 86 % 1017,4 hPa 0,0 l/m 4,1 km/h (1 Bft) SO 135 -3,8 C -1,8 C 4,1 km/h (1 Bft)
05.12.2019 03:06 17,0 C -1,8 C 0,3 C 50 % 86 % 1017,4 hPa 0,0 l/m 4,1 km/h (1 Bft) SO 135 -3,8 C -1,8 C 4,1 km/h (1 Bft)
05.12.2019 03:04 17,0 C -1,8 C 0,3 C 50 % 86 % 1017,4 hPa 0,0 l/m 4,1 km/h (1 Bft) SO 135 -3,8 C -1,8 C 4,1 km/h (1 Bft)
05.12.2019 03:02 17,1 C -1,8 C 0,5 C 50 % 86 % 1017,4 hPa 0,0 l/m 4,1 km/h (1 Bft) SO 135 -3,8 C -1,8 C 7,5 km/h (2 Bft)
05.12.2019 03:00 17,0 C -1,8 C 0,5 C 50 % 86 % 1017,8 hPa 0,0 l/m 4,3 km/h (1 Bft) S 180 -3,8 C -1,8 C 7,5 km/h (2 Bft)
05.12.2019 02:58 17,1 C -1,8 C 0,3 C 50 % 86 % 1017,8 hPa 0,0 l/m 4,6 km/h (1 Bft) W 270 -3,8 C -1,8 C 4,8 km/h (1 Bft)
05.12.2019 02:56 17,1 C -1,8 C 0,5 C 50 % 86 % 1017,8 hPa 0,0 l/m 4,8 km/h (1 Bft) SW 225 -3,8 C -1,8 C 13,3 km/h (3 Bft)
05.12.2019 02:54 17,2 C -1,8 C 0,5 C 50 % 86 % 1017,8 hPa 0,0 l/m 4,6 km/h (1 Bft) S-SO 157 -3,8 C -1,8 C 8,0 km/h (2 Bft)
05.12.2019 02:52 17,2 C -1,8 C 0,5 C 50 % 86 % 1017,8 hPa 0,0 l/m 4,1 km/h (1 Bft) S-SO 157 -3,8 C -1,8 C 5,3 km/h (1 Bft)
05.12.2019 02:50 17,2 C -1,6 C 0,3 C 49 % 86 % 1017,8 hPa 0,0 l/m 4,3 km/h (1 Bft) S-SW 202 -3,6 C -1,6 C 5,1 km/h (1 Bft)
05.12.2019 02:48 17,2 C -1,6 C 0,3 C 50 % 86 % 1017,8 hPa 0,0 l/m 4,3 km/h (1 Bft) S 180 -3,6 C -1,6 C 5,1 km/h (1 Bft)
05.12.2019 02:46 17,2 C -1,6 C 0,3 C 49 % 86 % 1017,8 hPa 0,0 l/m 4,6 km/h (1 Bft) S 180 -3,6 C -1,6 C 12,3 km/h (3 Bft)
05.12.2019 02:44 17,2 C -1,6 C 0,2 C 49 % 86 % 1017,8 hPa 0,0 l/m 4,6 km/h (1 Bft) SO 135 -3,6 C -1,6 C 6,3 km/h (2 Bft)
05.12.2019 02:42 17,2 C -1,6 C 0,3 C 49 % 86 % 1017,8 hPa 0,0 l/m 5,1 km/h (1 Bft) S 180 -3,6 C -1,6 C 10,1 km/h (2 Bft)
05.12.2019 02:40 17,3 C -1,6 C 0,3 C 49 % 86 % 1017,7 hPa 0,0 l/m 4,8 km/h (1 Bft) S 180 -3,6 C -1,6 C 10,1 km/h (2 Bft)
05.12.2019 02:38 17,2 C -1,6 C 0,3 C 49 % 86 % 1017,7 hPa 0,0 l/m 4,8 km/h (1 Bft) O 90 -3,6 C -1,6 C 6,8 km/h (2 Bft)
05.12.2019 02:36 17,2 C -1,6 C 0,2 C 49 % 86 % 1017,7 hPa 0,0 l/m 4,8 km/h (1 Bft) S-SO 157 -3,6 C -1,6 C 6,8 km/h (2 Bft)
05.12.2019 02:34 17,4 C -1,6 C 0,2 C 49 % 86 % 1017,7 hPa 0,0 l/m 4,1 km/h (1 Bft) S-SO 157 -3,6 C -1,6 C 9,2 km/h (2 Bft)
05.12.2019 02:32 17,4 C -1,6 C 0,3 C 49 % 86 % 1017,7 hPa 0,0 l/m 4,1 km/h (1 Bft) O-SO 112 -3,6 C -1,6 C 9,2 km/h (2 Bft)
05.12.2019 02:30 17,4 C -1,6 C 0,3 C 49 % 86 % 1017,7 hPa 0,0 l/m 3,4 km/h (1 Bft) SW 225 -3,6 C -1,6 C 9,4 km/h (2 Bft)
05.12.2019 02:28 17,4 C -1,6 C 0,3 C 49 % 86 % 1017,7 hPa 0,0 l/m 3,4 km/h (1 Bft) S-SW 202 -3,6 C -1,6 C 9,4 km/h (2 Bft)
05.12.2019 02:26 17,4 C -1,6 C 0,3 C 49 % 86 % 1017,7 hPa 0,0 l/m 2,9 km/h (1 Bft) O-SO 112 -3,6 C -1,6 C 7,0 km/h (2 Bft)
05.12.2019 02:24 17,4 C -1,6 C 0,3 C 49 % 86 % 1017,7 hPa 0,0 l/m 3,4 km/h (1 Bft) SO 135 -3,6 C -1,6 C 4,6 km/h (1 Bft)
05.12.2019 02:22 17,5 C -1,6 C 0,3 C 49 % 86 % 1017,7 hPa 0,0 l/m 3,4 km/h (1 Bft) O 90 -3,6 C -1,6 C 4,6 km/h (1 Bft)
05.12.2019 02:20 17,5 C -1,6 C 0,3 C 49 % 86 % 1017,8 hPa 0,0 l/m 4,3 km/h (1 Bft) S 180 -3,6 C -1,6 C 7,2 km/h (2 Bft)
05.12.2019 02:18 17,5 C -1,6 C 0,3 C 49 % 86 % 1017,8 hPa 0,0 l/m 4,6 km/h (1 Bft) O-SO 112 -3,6 C -1,6 C 7,2 km/h (2 Bft)
05.12.2019 02:16 17,5 C -1,6 C 0,2 C 49 % 86 % 1017,8 hPa 0,0 l/m 4,3 km/h (1 Bft) O-NO 67 -3,6 C -1,6 C 8,0 km/h (2 Bft)
05.12.2019 02:14 17,6 C -1,6 C 0,2 C 49 % 86 % 1017,8 hPa 0,0 l/m 4,1 km/h (1 Bft) S-SO 157 -3,6 C -1,6 C 8,0 km/h (2 Bft)
05.12.2019 02:12 17,6 C -1,6 C 0,3 C 49 % 86 % 1017,8 hPa 0,0 l/m 3,4 km/h (1 Bft) S-SO 157 -3,6 C -1,6 C 8,2 km/h (2 Bft)
05.12.2019 02:10 17,6 C -1,6 C 0,3 C 49 % 86 % 1017,8 hPa 0,0 l/m 3,4 km/h (1 Bft) SO 135 -3,6 C -1,6 C 8,2 km/h (2 Bft)
05.12.2019 02:08 17,6 C -1,6 C 0,3 C 49 % 86 % 1017,8 hPa 0,0 l/m 2,9 km/h (1 Bft) S 180 -3,6 C -1,6 C 6,8 km/h (2 Bft)
05.12.2019 02:06 17,6 C -1,6 C 0,3 C 49 % 86 % 1017,8 hPa 0,0 l/m 2,9 km/h (1 Bft) O-SO 112 -3,6 C -1,6 C 5,6 km/h (1 Bft)
05.12.2019 02:04 17,6 C -1,6 C 0,3 C 49 % 86 % 1017,8 hPa 0,0 l/m 3,4 km/h (1 Bft) SO 135 -3,6 C -1,6 C 5,6 km/h (1 Bft)
05.12.2019 02:02 17,7 C -1,6 C 0,2 C 49 % 86 % 1017,8 hPa 0,0 l/m 4,1 km/h (1 Bft) SO 135 -3,6 C -1,6 C 0,0 km/h (0 Bft)
05.12.2019 02:00 17,7 C -1,6 C 0,2 C 49 % 86 % 1017,8 hPa 0,0 l/m 4,1 km/h (1 Bft) S 180 -3,6 C -1,6 C 3,9 km/h (1 Bft)
05.12.2019 01:58 17,7 C -1,6 C 0,3 C 48 % 86 % 1017,8 hPa 0,0 l/m 4,1 km/h (1 Bft) SO 135 -3,6 C -1,6 C 6,5 km/h (2 Bft)
05.12.2019 01:56 17,7 C -1,6 C 0,3 C 48 % 86 % 1017,8 hPa 0,0 l/m 4,1 km/h (1 Bft) SW 225 -3,6 C -1,6 C 7,2 km/h (2 Bft)
05.12.2019 01:54 17,8 C -1,6 C 0,3 C 48 % 86 % 1017,8 hPa 0,0 l/m 3,9 km/h (1 Bft) S 180 -3,6 C -1,6 C 7,2 km/h (2 Bft)
05.12.2019 01:52 17,8 C -1,6 C 0,2 C 48 % 86 % 1017,8 hPa 0,0 l/m 3,4 km/h (1 Bft) S-SO 157 -3,6 C -1,6 C 5,6 km/h (1 Bft)
05.12.2019 01:50 17,8 C -1,6 C 0,2 C 48 % 86 % 1017,8 hPa 0,0 l/m 3,6 km/h (1 Bft) O-NO 67 -3,6 C -1,6 C 7,2 km/h (2 Bft)
05.12.2019 01:48 17,8 C -1,8 C 0,2 C 48 % 86 % 1017,8 hPa 0,0 l/m 3,1 km/h (1 Bft) SO 135 -3,8 C -1,8 C 7,2 km/h (2 Bft)
05.12.2019 01:46 17,9 C -1,8 C 0,2 C 48 % 86 % 1017,8 hPa 0,0 l/m 2,9 km/h (1 Bft) S-SO 157 -3,8 C -1,8 C 6,8 km/h (2 Bft)
05.12.2019 01:44 17,9 C -1,8 C 0,1 C 48 % 86 % 1017,8 hPa 0,0 l/m 2,2 km/h (1 Bft) O-NO 67 -3,8 C -1,8 C 4,3 km/h (1 Bft)
05.12.2019 01:42 17,9 C -1,8 C 0,1 C 48 % 86 % 1017,8 hPa 0,0 l/m 2,2 km/h (1 Bft) S-SO 157 -3,8 C -1,8 C 5,8 km/h (2 Bft)
05.12.2019 01:40 18,0 C -1,8 C 0,1 C 48 % 86 % 1017,9 hPa 0,0 l/m 2,9 km/h (1 Bft) S-SO 157 -3,8 C -1,8 C 5,8 km/h (2 Bft)
05.12.2019 01:38 18,0 C -1,8 C 0,0 C 48 % 86 % 1017,9 hPa 0,0 l/m 3,1 km/h (1 Bft) S 180 -3,8 C -1,8 C 5,1 km/h (1 Bft)
05.12.2019 01:36 18,0 C -1,8 C 0,1 C 48 % 86 % 1017,9 hPa 0,0 l/m 3,4 km/h (1 Bft) O-NO 67 -3,8 C -1,8 C 5,1 km/h (1 Bft)
05.12.2019 01:34 18,0 C -1,8 C 0,1 C 48 % 86 % 1017,9 hPa 0,0 l/m 3,9 km/h (1 Bft) S-SO 157 -3,8 C -1,8 C 3,9 km/h (1 Bft)
05.12.2019 01:32 18,0 C -1,8 C 0,0 C 48 % 86 % 1017,9 hPa 0,0 l/m 3,6 km/h (1 Bft) S-SO 157 -3,8 C -1,8 C 9,4 km/h (2 Bft)
05.12.2019 01:30 18,1 C -1,8 C 0,0 C 48 % 86 % 1017,9 hPa 0,0 l/m 2,9 km/h (1 Bft) SO 135 -3,8 C -1,8 C 9,4 km/h (2 Bft)
05.12.2019 01:28 18,1 C -1,9 C 0,0 C 48 % 85 % 1017,9 hPa 0,0 l/m 2,4 km/h (1 Bft) S-SO 157 -4,1 C -1,9 C 5,8 km/h (2 Bft)
05.12.2019 01:26 18,1 C -1,9 C 0,0 C 48 % 85 % 1017,9 hPa 0,0 l/m 2,2 km/h (1 Bft) SO 135 -4,1 C -1,9 C 5,8 km/h (2 Bft)
05.12.2019 01:24 18,2 C -1,9 C -0,1 C 48 % 85 % 1017,9 hPa 0,0 l/m 2,4 km/h (1 Bft) SO 135 -4,1 C -1,9 C 3,6 km/h (1 Bft)
05.12.2019 01:22 18,2 C -1,9 C -0,3 C 48 % 85 % 1017,9 hPa 0,0 l/m 2,7 km/h (1 Bft) NO 45 -4,1 C -1,9 C 0,0 km/h (0 Bft)
05.12.2019 01:20 18,2 C -1,9 C -0,3 C 48 % 85 % 1017,9 hPa 0,0 l/m 3,6 km/h (1 Bft) S 180 -4,1 C -1,9 C 4,1 km/h (1 Bft)
05.12.2019 01:18 18,2 C -1,9 C -0,3 C 48 % 85 % 1017,9 hPa 0,0 l/m 4,3 km/h (1 Bft) SO 135 -4,1 C -1,9 C 5,3 km/h (1 Bft)
05.12.2019 01:16 18,2 C -1,9 C -0,4 C 48 % 85 % 1017,9 hPa 0,0 l/m 4,6 km/h (1 Bft) SO 135 -4,1 C -1,9 C 8,9 km/h (2 Bft)
05.12.2019 01:14 18,2 C -2,0 C -0,7 C 48 % 85 % 1017,9 hPa 0,0 l/m 5,1 km/h (1 Bft) SO 135 -4,2 C -2,0 C 8,9 km/h (2 Bft)
05.12.2019 01:12 18,4 C -2,0 C -0,7 C 48 % 85 % 1017,9 hPa 0,0 l/m 4,8 km/h (1 Bft) SO 135 -4,2 C -2,0 C 8,2 km/h (2 Bft)
05.12.2019 01:10 18,4 C -2,0 C -0,4 C 47 % 85 % 1017,9 hPa 0,0 l/m 4,8 km/h (1 Bft) SO 135 -4,2 C -2,0 C 8,2 km/h (2 Bft)
05.12.2019 01:08 18,4 C -2,0 C -0,4 C 47 % 85 % 1017,9 hPa 0,0 l/m 4,8 km/h (1 Bft) O-SO 112 -4,2 C -2,0 C 7,5 km/h (2 Bft)
05.12.2019 01:06 18,4 C -2,0 C -0,4 C 47 % 85 % 1017,9 hPa 0,0 l/m 5,1 km/h (1 Bft) SO 135 -4,2 C -2,0 C 7,5 km/h (2 Bft)
05.12.2019 01:04 18,4 C -2,0 C -0,5 C 47 % 85 % 1017,9 hPa 0,0 l/m 4,8 km/h (1 Bft) S-SO 157 -4,2 C -2,0 C 6,3 km/h (2 Bft)
05.12.2019 01:02 18,5 C -2,0 C -0,5 C 47 % 85 % 1017,9 hPa 0,0 l/m 4,8 km/h (1 Bft) S 180 -4,2 C -2,0 C 8,4 km/h (2 Bft)
05.12.2019 01:00 18,5 C -2,0 C -0,5 C 47 % 85 % 1018,2 hPa 0,0 l/m 5,1 km/h (1 Bft) W-SW 247 -4,2 C -2,0 C 8,4 km/h (2 Bft)
05.12.2019 00:58 18,5 C -2,0 C -0,7 C 47 % 85 % 1018,2 hPa 0,0 l/m 4,8 km/h (1 Bft) S 180 -4,2 C -2,0 C 7,2 km/h (2 Bft)
05.12.2019 00:56 18,6 C -2,0 C -0,5 C 47 % 85 % 1018,2 hPa 0,0 l/m 4,3 km/h (1 Bft) S-SO 157 -4,2 C -2,0 C 7,2 km/h (2 Bft)
05.12.2019 00:54 18,6 C -2,0 C -0,5 C 47 % 85 % 1018,2 hPa 0,0 l/m 4,3 km/h (1 Bft) SO 135 -4,2 C -2,0 C 7,0 km/h (2 Bft)
05.12.2019 00:52 18,7 C -2,0 C -0,5 C 47 % 85 % 1018,2 hPa 0,0 l/m 4,8 km/h (1 Bft) SW 225 -4,2 C -2,0 C 9,2 km/h (2 Bft)
05.12.2019 00:50 18,7 C -1,9 C -0,4 C 47 % 85 % 1018,2 hPa 0,0 l/m 5,1 km/h (1 Bft) S-SO 157 -4,1 C -1,9 C 9,2 km/h (2 Bft)
05.12.2019 00:48 18,7 C -1,9 C -0,3 C 47 % 85 % 1018,2 hPa 0,0 l/m 5,3 km/h (1 Bft) S-SO 157 -4,1 C -1,9 C 8,0 km/h (2 Bft)
05.12.2019 00:46 18,8 C -1,9 C -0,3 C 47 % 85 % 1018,2 hPa 0,0 l/m 5,8 km/h (2 Bft) SO 135 -4,1 C -1,9 C 11,6 km/h (2 Bft)
05.12.2019 00:44 18,8 C -1,9 C -0,4 C 46 % 85 % 1018,2 hPa 0,0 l/m 5,3 km/h (1 Bft) SO 135 -4,1 C -1,9 C 6,8 km/h (2 Bft)
05.12.2019 00:42 18,8 C -1,9 C -0,3 C 46 % 85 % 1018,2 hPa 0,0 l/m 4,8 km/h (1 Bft) SO 135 -4,1 C -1,9 C 7,0 km/h (2 Bft)
05.12.2019 00:40 18,8 C -1,9 C -0,3 C 46 % 85 % 1018,5 hPa 0,0 l/m 3,9 km/h (1 Bft) SO 135 -4,1 C -1,9 C 7,2 km/h (2 Bft)
05.12.2019 00:38 18,9 C -1,9 C -0,3 C 46 % 85 % 1018,5 hPa 0,0 l/m 3,1 km/h (1 Bft) O-NO 67 -4,1 C -1,9 C 9,9 km/h (2 Bft)
05.12.2019 00:36 18,9 C -1,9 C -0,3 C 46 % 85 % 1018,5 hPa 0,0 l/m 2,4 km/h (1 Bft) S-SO 157 -4,1 C -1,9 C 9,9 km/h (2 Bft)
05.12.2019 00:34 19,0 C -1,8 C -0,3 C 46 % 85 % 1018,5 hPa 0,0 l/m 1,7 km/h (1 Bft) S-SO 157 -4,0 C -1,8 C 3,9 km/h (1 Bft)
05.12.2019 00:32 19,0 C -1,8 C -0,3 C 46 % 85 % 1018,5 hPa 0,0 l/m 1,9 km/h (1 Bft) SO 135 -4,0 C -1,8 C 3,4 km/h (1 Bft)
05.12.2019 00:30 19,0 C -1,8 C -0,3 C 46 % 85 % 1018,5 hPa 0,0 l/m 2,2 km/h (1 Bft) S-SO 157 -4,0 C -1,8 C 0,0 km/h (0 Bft)
05.12.2019 00:28 19,1 C -1,8 C -0,3 C 46 % 85 % 1018,5 hPa 0,0 l/m 2,7 km/h (1 Bft) SO 135 -4,0 C -1,8 C 9,4 km/h (2 Bft)
05.12.2019 00:26 19,1 C -1,8 C -0,3 C 46 % 85 % 1018,5 hPa 0,0 l/m 3,4 km/h (1 Bft) NO 45 -4,0 C -1,8 C 9,4 km/h (2 Bft)
05.12.2019 00:24 19,2 C -1,8 C -0,1 C 46 % 85 % 1018,5 hPa 0,0 l/m 3,6 km/h (1 Bft) NO 45 -4,0 C -1,8 C 5,8 km/h (2 Bft)
05.12.2019 00:22 19,2 C -1,6 C 0,1 C 46 % 85 % 1018,5 hPa 0,0 l/m 4,8 km/h (1 Bft) SO 135 -3,8 C -1,6 C 5,8 km/h (2 Bft)
05.12.2019 00:20 19,2 C -1,6 C 0,1 C 46 % 85 % 1019,1 hPa 0,0 l/m 5,6 km/h (1 Bft) S 180 -3,8 C -1,6 C 8,0 km/h (2 Bft)
05.12.2019 00:18 19,3 C -1,6 C 0,1 C 46 % 85 % 1019,1 hPa 0,0 l/m 5,8 km/h (2 Bft) S 180 -3,8 C -1,6 C 8,0 km/h (2 Bft)
05.12.2019 00:16 19,2 C -1,6 C 0,1 C 45 % 85 % 1019,1 hPa 0,0 l/m 5,6 km/h (1 Bft) S 180 -3,8 C -1,6 C 9,2 km/h (2 Bft)
05.12.2019 00:14 19,4 C -1,6 C 0,1 C 45 % 84 % 1019,1 hPa 0,0 l/m 5,1 km/h (1 Bft) SO 135 -3,9 C -1,6 C 8,0 km/h (2 Bft)
05.12.2019 00:12 19,4 C -1,5 C 0,1 C 45 % 84 % 1019,1 hPa 0,0 l/m 4,3 km/h (1 Bft) S-SO 157 -3,8 C -1,5 C 8,0 km/h (2 Bft)
05.12.2019 00:10 19,4 C -1,5 C 0,2 C 45 % 84 % 1019,1 hPa 0,0 l/m 4,1 km/h (1 Bft) S 180 -3,8 C -1,5 C 4,8 km/h (1 Bft)
05.12.2019 00:08 19,5 C -1,5 C 0,2 C 45 % 84 % 1019,1 hPa 0,0 l/m 4,1 km/h (1 Bft) S 180 -3,8 C -1,5 C 4,8 km/h (1 Bft)
05.12.2019 00:06 19,5 C -1,5 C 0,2 C 45 % 84 % 1019,1 hPa 0,0 l/m 4,1 km/h (1 Bft) S 180 -3,8 C -1,5 C 4,8 km/h (1 Bft)
05.12.2019 00:04 19,6 C -1,5 C 0,2 C 45 % 84 % 1019,1 hPa 0,0 l/m 4,1 km/h (1 Bft) S 180 -3,8 C -1,5 C 4,8 km/h (1 Bft)
05.12.2019 00:02 19,6 C -1,5 C 0,2 C 45 % 84 % 1019,1 hPa 0,0 l/m 4,1 km/h (1 Bft) S 180 -3,8 C -1,5 C 5,1 km/h (1 Bft)
05.12.2019 00:00 19,7 C -1,5 C 0,2 C 45 % 84 % 1019,2 hPa 0,0 l/m 4,1 km/h (1 Bft) S-SO 157 -3,8 C -1,5 C 9,9 km/h (2 Bft)
_ Min-Zeit 16:38 09:00 00:58 00:00 00:00 16:02 - 20:12 - - 00:52 10:46 00:30
Minimum _ 13,3 C -2,1 C -0,7 C 45 % 84 % 1016,2 hPa - 0,2 km/h (0 Bft) - - -4,2 C -3,2 C 0,0 km/h (0 Bft)
_ Max-Zeit 00:00 00:00 13:20 18:38 18:20 20:22 00:00 10:46 - - 18:20 00:00 09:46
Maximum _ 19,7 C -1,5 C 2,6 C 55 % 89 % 1020,6 hPa 0,0 l/m 7,5 km/h
S-SW (2 Bft)
- - -3,3 C -1,5 C 16,4 km/h
S (3 Bft)
Durchschnitt _ 15,5 C -1,8 C 1,1 C 51 % 87 % 1017,6 hPa #0,0 l/m 3,7 km/h (1 Bft) S-SO - -3,7 C -1,8 C 6,2 km/h (2 Bft)